UAE229 OMDB-KSEA

Flight info

Callsign UAE229
Flight time 14h 13m
Altitude 31000
Route ANVIX L223 TARDI N629 IVAKU G216 ALPOR DCT PI B505 PG G325 REGET/N0496F320 N644 LEMOD B362 LBA A299 POGON/K0909F320 Y927 AKALI L985 UZLOR L162 ERUTA/K0889F340 L162 URUSU N984 RULEN T822 ALOPU/K0904F330 T793 KUKSA/K0904F350 T793 URIRA/K0902F340 T793 SONIB T533 ROTLA/K0913F360 T533 AGATA DCT 81N030E/N0491F360 82N027E/M083F360 84N020E 86N000E 87N020W 87N040W DCT OVBES/N0492F360 DCT 85N100W 80N114W/N0488F380 75N121W/N0490F370 70N122W 65N123W/N0489F390 60N124W 55N124W DCT ELIDI/N0484F400 DCT KEINN/N0483F390 DCT NUTBE DCT VIXOR MARNR8
Aircraft B77L/H-SDE1E2E3FGHIJ2J3J4J5M1RWXY/LB1D1

Departure

Time 2026-04-21 21:09
Airport Dubai International Airport (OMDB)

Arrival

Time 2026-04-22 11:23
Airport Seattle–Tacoma International Airport (KSEA)
Time Latitude Longitude Altitude Speed Heading
2026-04-21 20:18 25.25371 55.35423 28 ft 0 kts 211°
2026-04-21 20:48 25.25381 55.35430 25 ft 3 kts 211°
2026-04-21 20:49 25.25393 55.35437 33 ft 3 kts 211°
2026-04-21 20:49 25.25404 55.35445 27 ft 3 kts 211°
2026-04-21 20:50 25.25414 55.35452 31 ft 3 kts 211°
2026-04-21 20:50 25.25430 55.35463 31 ft 2 kts 207°
2026-04-21 20:50 25.25433 55.35465 31 ft 0 kts 203°
2026-04-21 20:50 25.25371 55.35423 28 ft 0 kts 211°
2026-04-21 20:53 25.25372 55.35423 28 ft 0 kts 211°
2026-04-21 20:53 25.25383 55.35431 31 ft 3 kts 211°
2026-04-21 20:53 25.25401 55.35443 28 ft 3 kts 211°
2026-04-21 20:54 25.25418 55.35455 31 ft 3 kts 211°
2026-04-21 20:54 25.25434 55.35465 30 ft 3 kts 221°
2026-04-21 20:54 25.25444 55.35477 30 ft 3 kts 255°
2026-04-21 20:54 25.25445 55.35493 29 ft 3 kts 289°
2026-04-21 20:55 25.25440 55.35508 32 ft 1 kts 302°
2026-04-21 20:55 25.25432 55.35522 32 ft 3 kts 302°
2026-04-21 20:55 25.25421 55.35541 30 ft 3 kts 302°
2026-04-21 20:55 25.25410 55.35560 31 ft 3 kts 302°
2026-04-21 20:56 25.25399 55.35579 31 ft 3 kts 302°
2026-04-21 20:56 25.25392 55.35593 31 ft 0 kts 302°
2026-04-21 20:56 25.25331 55.35702 26 ft 0 kts 302°
2026-04-21 20:59 25.25358 55.35654 28 ft 18 kts 302°
2026-04-21 20:59 25.25467 55.35459 33 ft 40 kts 302°
2026-04-21 21:00 25.25652 55.35130 30 ft 58 kts 302°
2026-04-21 21:00 25.25888 55.34713 28 ft 72 kts 302°
2026-04-21 21:00 25.26159 55.34237 30 ft 55 kts 301°
2026-04-21 21:00 25.26198 55.34159 30 ft 3 kts 313°
2026-04-21 21:01 25.26012 55.34441 26 ft 0 kts 118°
2026-04-21 21:01 25.25984 55.34513 30 ft 21 kts 112°
2026-04-21 21:01 25.25885 55.34709 30 ft 34 kts 123°
2026-04-21 21:01 25.25765 55.34921 30 ft 31 kts 122°
2026-04-21 21:02 25.25675 55.35097 26 ft 20 kts 105°
2026-04-21 21:02 25.25726 55.35180 29 ft 16 kts 31°
2026-04-21 21:02 25.25828 55.35248 29 ft 19 kts 31°
2026-04-21 21:02 25.25938 55.35322 29 ft 15 kts 32°
2026-04-21 21:03 25.26005 55.35395 26 ft 14 kts 73°
2026-04-21 21:03 25.26002 55.35517 27 ft 20 kts 109°
2026-04-21 21:03 25.25934 55.35655 27 ft 20 kts 121°
2026-04-21 21:03 25.25918 55.35683 27 ft 0 kts 122°
2026-04-21 21:04 25.25910 55.35696 27 ft 9 kts 122°
2026-04-21 21:04 25.25833 55.35836 28 ft 31 kts 122°
2026-04-21 21:04 25.25718 55.36038 28 ft 32 kts 122°
2026-04-21 21:04 25.25607 55.36237 28 ft 29 kts 121°
2026-04-21 21:05 25.25500 55.36425 28 ft 28 kts 122°
2026-04-21 21:05 25.25433 55.36543 28 ft 27 kts 122°
2026-04-21 21:05 25.25329 55.36732 28 ft 32 kts 121°
2026-04-21 21:05 25.25214 55.36935 28 ft 30 kts 122°
2026-04-21 21:06 25.25106 55.37126 29 ft 29 kts 122°
2026-04-21 21:06 25.25003 55.37309 30 ft 27 kts 122°
2026-04-21 21:06 25.24905 55.37483 30 ft 26 kts 122°
2026-04-21 21:06 25.24810 55.37653 29 ft 25 kts 122°
2026-04-21 21:07 25.24720 55.37814 29 ft 24 kts 122°
2026-04-21 21:07 25.24669 55.37914 29 ft 11 kts 104°
2026-04-21 21:07 25.24678 55.37954 29 ft 0 kts 51°
2026-04-21 21:08 25.24680 55.37955 29 ft 3 kts 50°
2026-04-21 21:08 25.24746 55.38006 33 ft 16 kts 30°
2026-04-21 21:08 25.24813 55.38017 34 ft 8 kts 325°
2026-04-21 21:08 25.24854 55.37944 34 ft 28 kts 301°
2026-04-21 21:09 25.25128 55.37447 36 ft 121 kts 301°
2026-04-21 21:09 25.25721 55.36371 54 ft 200 kts 301°
2026-04-21 21:09 25.26445 55.35042 742 ft 202 kts 301°
2026-04-21 21:09 25.27193 55.33639 1606 ft 216 kts 302°
2026-04-21 21:10 25.27983 55.32228 2415 ft 213 kts 304°
2026-04-21 21:10 25.28784 55.30860 3035 ft 211 kts 301°
2026-04-21 21:10 25.29208 55.29310 3430 ft 214 kts 267°
2026-04-21 21:10 25.28848 55.27751 3909 ft 210 kts 243°
2026-04-21 21:11 25.28217 55.26284 4391 ft 211 kts 244°
2026-04-21 21:11 25.27591 55.24814 4947 ft 210 kts 244°
2026-04-21 21:11 25.26887 55.23166 5565 ft 209 kts 244°
2026-04-21 21:11 25.26328 55.21855 5807 ft 223 kts 244°
2026-04-21 21:12 25.25632 55.20227 6004 ft 246 kts 244°
2026-04-21 21:12 25.24831 55.18453 6188 ft 266 kts 235°
2026-04-21 21:12 25.23448 55.17094 6650 ft 274 kts 204°
2026-04-21 21:12 25.21569 55.16714 7288 ft 278 kts 179°
2026-04-21 21:13 25.19651 55.17058 7881 ft 286 kts 159°
2026-04-21 21:13 25.18017 55.18333 8547 ft 294 kts 133°
2026-04-21 21:13 25.16928 55.20236 9192 ft 299 kts 121°
2026-04-21 21:13 25.15949 55.22316 9801 ft 306 kts 120°
2026-04-21 21:14 25.14953 55.24431 10270 ft 319 kts 120°
2026-04-21 21:14 25.13883 55.26677 10427 ft 343 kts 120°
2026-04-21 21:14 25.12748 55.29059 10843 ft 356 kts 120°
2026-04-21 21:14 25.11575 55.31505 11421 ft 364 kts 120°
2026-04-21 21:15 25.10404 55.33979 12085 ft 370 kts 118°
2026-04-21 21:15 25.09302 55.36613 12795 ft 375 kts 116°
2026-04-21 21:15 25.08222 55.39304 13504 ft 380 kts 116°
2026-04-21 21:15 25.07140 55.41980 14117 ft 384 kts 115°
2026-04-21 21:16 25.06081 55.44701 14693 ft 388 kts 114°
2026-04-21 21:16 25.05036 55.47447 14793 ft 391 kts 114°
2026-04-21 21:16 25.03982 55.50212 14792 ft 390 kts 114°
2026-04-21 21:16 25.02930 55.52951 14796 ft 389 kts 114°
2026-04-21 21:17 25.01842 55.55744 14789 ft 389 kts 116°
2026-04-21 21:17 25.00566 55.58364 14814 ft 392 kts 123°
2026-04-21 21:17 24.99090 55.60968 14975 ft 411 kts 124°
2026-04-21 21:17 24.97578 55.63608 15337 ft 422 kts 123°
2026-04-21 21:18 24.96050 55.66368 15830 ft 430 kts 122°
2026-04-21 21:18 24.94503 55.69220 16440 ft 434 kts 122°
2026-04-21 21:18 24.92872 55.72029 17090 ft 436 kts 126°
2026-04-21 21:18 24.91125 55.74666 17745 ft 439 kts 128°
2026-04-21 21:19 24.89259 55.77369 18317 ft 442 kts 128°
2026-04-21 21:19 24.87399 55.80090 18844 ft 446 kts 128°
2026-04-21 21:19 24.85553 55.82847 19351 ft 451 kts 128°
2026-04-21 21:19 24.83699 55.85644 19873 ft 454 kts 128°
2026-04-21 21:20 24.81805 55.88469 20407 ft 458 kts 128°
2026-04-21 21:20 24.79902 55.91285 20927 ft 461 kts 129°
2026-04-21 21:20 24.77966 55.94107 21429 ft 463 kts 131°
2026-04-21 21:20 24.75760 55.96674 21816 ft 465 kts 140°
2026-04-21 21:21 24.73309 55.99038 22268 ft 468 kts 142°
2026-04-21 21:21 24.70847 56.01409 22779 ft 472 kts 141°
2026-04-21 21:21 24.68422 56.03850 23284 ft 475 kts 140°
2026-04-21 21:21 24.66010 56.06332 23713 ft 477 kts 140°
2026-04-21 21:22 24.63570 56.08847 24091 ft 481 kts 140°
2026-04-21 21:22 24.61118 56.11364 24473 ft 484 kts 140°
2026-04-21 21:22 24.58648 56.13895 24870 ft 487 kts 139°
2026-04-21 21:22 24.56235 56.16521 25297 ft 491 kts 134°
2026-04-21 21:23 24.53988 56.19358 25732 ft 494 kts 133°
2026-04-21 21:23 24.51758 56.22239 26172 ft 496 kts 133°
2026-04-21 21:23 24.49519 56.25134 26572 ft 498 kts 133°
2026-04-21 21:23 24.47267 56.28032 26962 ft 501 kts 133°
2026-04-21 21:24 24.44988 56.30948 27339 ft 504 kts 133°
2026-04-21 21:24 24.42694 56.33869 27755 ft 506 kts 133°
2026-04-21 21:24 24.40382 56.36803 28153 ft 508 kts 133°
2026-04-21 21:24 24.38069 56.39739 28539 ft 510 kts 133°
2026-04-21 21:25 24.35740 56.42693 28902 ft 513 kts 133°
2026-04-21 21:25 24.33412 56.45645 29223 ft 516 kts 133°
2026-04-21 21:25 24.31052 56.48637 29536 ft 518 kts 133°
2026-04-21 21:25 24.28764 56.51697 29927 ft 520 kts 128°
2026-04-21 21:26 24.26615 56.54901 30321 ft 519 kts 127°
2026-04-21 21:26 24.24521 56.58094 30710 ft 519 kts 127°
2026-04-21 21:26 24.22408 56.61331 30815 ft 522 kts 127°
2026-04-21 21:26 24.20298 56.64549 30814 ft 521 kts 127°
2026-04-21 21:27 24.16065 56.70947 30818 ft 516 kts 128°
2026-04-21 21:27 24.11838 56.77293 30836 ft 515 kts 128°
2026-04-21 21:28 24.07611 56.83634 30844 ft 515 kts 128°
2026-04-21 21:29 24.01285 56.93098 30847 ft 516 kts 128°
2026-04-21 21:29 23.97029 56.99420 30842 ft 517 kts 128°
2026-04-21 21:30 23.92767 57.05751 30848 ft 517 kts 128°
2026-04-21 21:30 23.88499 57.12086 30846 ft 517 kts 128°
2026-04-21 21:31 23.84245 57.18410 30845 ft 518 kts 128°
2026-04-21 21:31 23.79979 57.24755 30851 ft 518 kts 128°
2026-04-21 21:32 23.75682 57.31134 30842 ft 518 kts 128°
2026-04-21 21:32 23.72108 57.36434 30844 ft 518 kts 128°
2026-04-21 21:33 23.67711 57.42621 30846 ft 517 kts 131°
2026-04-21 21:33 23.63224 57.48708 30849 ft 517 kts 131°
2026-04-21 21:34 23.58686 57.54929 30849 ft 517 kts 130°
2026-04-21 21:34 23.54227 57.61077 30853 ft 517 kts 130°
2026-04-21 21:35 23.50434 57.67678 30871 ft 519 kts 108°
2026-04-21 21:35 23.49728 57.71541 30858 ft 522 kts 94°
2026-04-21 21:35 23.49909 57.75485 30847 ft 522 kts 79°
2026-04-21 21:36 23.51427 57.83217 30849 ft 524 kts 77°
2026-04-21 21:36 23.52928 57.91013 30840 ft 527 kts 78°
2026-04-21 21:37 23.54328 57.98812 30824 ft 528 kts 79°
2026-04-21 21:37 23.55716 58.06728 30814 ft 528 kts 79°
2026-04-21 21:38 23.57098 58.14599 30807 ft 527 kts 79°
2026-04-21 21:38 23.58474 58.22423 30797 ft 525 kts 79°
2026-04-21 21:39 23.59830 58.30232 30802 ft 523 kts 80°
2026-04-21 21:39 23.61136 58.38016 30803 ft 522 kts 80°
2026-04-21 21:40 23.62434 58.45810 30798 ft 521 kts 81°
2026-04-21 21:40 23.63731 58.53581 30795 ft 521 kts 81°
2026-04-21 21:41 23.65027 58.61351 30793 ft 521 kts 81°
2026-04-21 21:41 23.66313 58.69092 30801 ft 521 kts 81°
2026-04-21 21:42 23.67600 58.76859 30800 ft 521 kts 81°
2026-04-21 21:42 23.68889 58.84671 30800 ft 521 kts 81°
2026-04-21 21:43 23.70171 58.92466 30796 ft 521 kts 81°
2026-04-21 21:43 23.71449 59.00257 30797 ft 521 kts 81°
2026-04-21 21:44 23.72720 59.08036 30794 ft 521 kts 81°
2026-04-21 21:44 23.73991 59.15842 30795 ft 521 kts 81°
2026-04-21 21:45 23.75253 59.23616 30795 ft 520 kts 81°
2026-04-21 21:45 23.76504 59.31348 30799 ft 520 kts 81°
2026-04-21 21:46 23.77763 59.39157 30798 ft 519 kts 81°
2026-04-21 21:46 23.79011 59.46918 30806 ft 519 kts 81°
2026-04-21 21:47 23.80258 59.54668 30798 ft 518 kts 81°
2026-04-21 21:47 23.81521 59.62421 30795 ft 518 kts 81°
2026-04-21 21:48 23.82779 59.70172 30794 ft 518 kts 81°
2026-04-21 21:48 23.84032 59.77931 30794 ft 519 kts 81°
2026-04-21 21:49 23.85271 59.85690 30794 ft 519 kts 81°
2026-04-21 21:49 23.86491 59.93460 30796 ft 519 kts 81°
2026-04-21 21:50 23.87710 60.01249 30805 ft 520 kts 81°
2026-04-21 21:50 23.88925 60.09025 30798 ft 520 kts 81°
2026-04-21 21:51 23.90138 60.16809 30805 ft 520 kts 81°
2026-04-21 21:51 23.91351 60.24613 30808 ft 520 kts 81°
2026-04-21 21:52 23.92556 60.32401 30805 ft 519 kts 81°
2026-04-21 21:52 23.93757 60.40181 30806 ft 519 kts 81°
2026-04-21 21:53 23.94945 60.47913 30804 ft 518 kts 81°
2026-04-21 21:53 23.96135 60.55680 30805 ft 518 kts 81°
2026-04-21 21:54 23.97320 60.63441 30809 ft 517 kts 81°
2026-04-21 21:54 23.98501 60.71204 30805 ft 517 kts 81°
2026-04-21 21:55 23.99677 60.78956 30814 ft 517 kts 81°
2026-04-21 21:55 24.00856 60.86765 30818 ft 517 kts 81°
2026-04-21 21:56 24.02024 60.94519 30810 ft 517 kts 81°
2026-04-21 21:56 24.03187 61.02274 30816 ft 516 kts 81°
2026-04-21 21:57 24.04346 61.10024 30816 ft 516 kts 81°
2026-04-21 21:57 24.05499 61.17771 30814 ft 516 kts 81°
2026-04-21 21:58 24.06642 61.25463 30812 ft 515 kts 81°
2026-04-21 21:58 24.08433 61.33025 30811 ft 514 kts 68°
2026-04-21 21:59 24.11700 61.39959 30816 ft 513 kts 56°
2026-04-21 21:59 24.15709 61.46414 30821 ft 512 kts 54°
2026-04-21 22:00 24.19736 61.52862 30817 ft 512 kts 55°
2026-04-21 22:00 24.23719 61.59339 30819 ft 512 kts 55°
2026-04-21 22:01 24.27675 61.65834 30818 ft 512 kts 55°
2026-04-21 22:01 24.31625 61.72337 30817 ft 512 kts 55°
2026-04-21 22:02 24.35567 61.78831 30821 ft 512 kts 55°
2026-04-21 22:02 24.39509 61.85329 30817 ft 511 kts 55°
2026-04-21 22:03 24.43446 61.91825 30821 ft 511 kts 55°
2026-04-21 22:03 24.47378 61.98323 30823 ft 510 kts 56°
2026-04-21 22:04 24.51293 62.04801 30815 ft 510 kts 55°
2026-04-21 22:04 24.55218 62.11307 30826 ft 510 kts 56°
2026-04-21 22:05 24.59128 62.17795 30831 ft 509 kts 56°
2026-04-21 22:05 24.63036 62.24288 30828 ft 509 kts 56°
2026-04-21 22:06 24.66942 62.30786 30824 ft 509 kts 56°
2026-04-21 22:06 24.70851 62.37298 30825 ft 509 kts 56°
2026-04-21 22:07 24.74716 62.43745 30825 ft 508 kts 56°
2026-04-21 22:07 24.78607 62.50245 30826 ft 508 kts 56°
2026-04-21 22:08 24.82493 62.56746 30823 ft 508 kts 56°
2026-04-21 22:08 24.86372 62.63243 30832 ft 508 kts 56°
2026-04-21 22:09 24.89592 62.68642 30822 ft 507 kts 56°
2026-04-21 22:09 24.93464 62.75144 30823 ft 507 kts 56°
2026-04-21 22:10 24.97349 62.81678 30821 ft 507 kts 56°
2026-04-21 22:10 25.01224 62.88202 30825 ft 507 kts 56°
2026-04-21 22:11 25.05079 62.94702 30823 ft 507 kts 56°
2026-04-21 22:11 25.08913 63.01174 30825 ft 507 kts 56°
2026-04-21 22:12 25.12766 63.07689 30820 ft 507 kts 56°
2026-04-21 22:12 25.16615 63.14206 30820 ft 506 kts 56°
2026-04-21 22:13 25.20458 63.20722 30817 ft 506 kts 57°
2026-04-21 22:13 25.24300 63.27245 30821 ft 506 kts 57°
2026-04-21 22:14 25.28570 63.33359 30812 ft 504 kts 41°
2026-04-21 22:14 25.34204 63.37637 30825 ft 502 kts 24°
2026-04-21 22:15 25.40429 63.40496 30820 ft 502 kts 21°
2026-04-21 22:15 25.46839 63.43378 30822 ft 504 kts 21°
2026-04-21 22:16 25.53232 63.46335 30829 ft 505 kts 22°
2026-04-21 22:16 25.59490 63.49277 30836 ft 506 kts 22°
2026-04-21 22:17 25.65704 63.52207 30830 ft 506 kts 22°
2026-04-21 22:17 25.71937 63.55144 30836 ft 506 kts 22°
2026-04-21 22:18 25.78127 63.58061 30838 ft 505 kts 22°
2026-04-21 22:18 25.84142 63.60899 30842 ft 505 kts 22°
2026-04-21 22:19 25.90323 63.63819 30847 ft 505 kts 22°
2026-04-21 22:19 25.96561 63.66770 30853 ft 505 kts 22°
2026-04-21 22:20 26.02774 63.69709 30861 ft 505 kts 21°
2026-04-21 22:20 26.09338 63.72803 30862 ft 505 kts 21°
2026-04-21 22:21 26.15280 63.75605 30865 ft 506 kts 21°
2026-04-21 22:21 26.21542 63.78564 30867 ft 506 kts 21°
2026-04-21 22:22 26.27391 63.81332 30868 ft 506 kts 21°
2026-04-21 22:22 26.33277 63.84120 30869 ft 507 kts 21°
2026-04-21 22:23 26.39701 63.87168 30871 ft 507 kts 21°
2026-04-21 22:23 26.45932 63.90128 30878 ft 508 kts 21°
2026-04-21 22:24 26.52498 63.93249 30879 ft 508 kts 21°
2026-04-21 22:24 26.58830 63.96264 30881 ft 509 kts 21°
2026-04-21 22:25 26.65204 63.99302 30880 ft 509 kts 21°
2026-04-21 22:25 26.71471 64.02293 30888 ft 509 kts 21°
2026-04-21 22:26 26.77906 64.05368 30891 ft 509 kts 21°
2026-04-21 22:26 26.84206 64.08383 30895 ft 509 kts 21°
2026-04-21 22:27 26.90618 64.11471 30894 ft 509 kts 23°
2026-04-21 22:27 26.96578 64.15548 30896 ft 512 kts 36°
2026-04-21 22:28 27.01695 64.20793 30895 ft 514 kts 44°
2026-04-21 22:28 27.06532 64.26437 30892 ft 514 kts 45°
2026-04-21 22:29 27.11342 64.32047 30894 ft 514 kts 45°
2026-04-21 22:29 27.16210 64.37665 30893 ft 515 kts 44°
2026-04-21 22:30 27.21167 64.43361 30889 ft 515 kts 44°
2026-04-21 22:30 27.26125 64.49062 30884 ft 515 kts 44°
2026-04-21 22:31 27.31127 64.54827 30883 ft 515 kts 44°
2026-04-21 22:31 27.36132 64.60605 30882 ft 515 kts 44°
2026-04-21 22:32 27.41130 64.66383 30878 ft 515 kts 44°
2026-04-21 22:32 27.46130 64.72171 30865 ft 515 kts 44°
2026-04-21 22:33 27.51088 64.77919 30869 ft 515 kts 44°
2026-04-21 22:33 27.56114 64.83755 30865 ft 515 kts 44°
2026-04-21 22:34 27.61106 64.89558 30869 ft 515 kts 44°
2026-04-21 22:34 27.66093 64.95364 30861 ft 515 kts 44°
2026-04-21 22:35 27.71075 65.01169 30868 ft 515 kts 45°
2026-04-21 22:35 27.76054 65.06982 30847 ft 514 kts 45°
2026-04-21 22:36 27.83496 65.15687 30847 ft 513 kts 45°
2026-04-21 22:36 27.88444 65.21483 30867 ft 513 kts 45°
2026-04-21 22:37 27.93360 65.27251 30846 ft 513 kts 45°
2026-04-21 22:37 27.98277 65.33027 30849 ft 514 kts 45°
2026-04-21 22:38 28.03246 65.38875 30849 ft 514 kts 45°
2026-04-21 22:38 28.08201 65.44711 30851 ft 514 kts 45°
2026-04-21 22:39 28.13160 65.50554 30859 ft 514 kts 45°
2026-04-21 22:39 28.18119 65.56403 30859 ft 514 kts 45°
2026-04-21 22:40 28.23059 65.62241 30863 ft 514 kts 45°
2026-04-21 22:40 28.28012 65.68103 30870 ft 514 kts 45°
2026-04-21 22:41 28.32967 65.73977 30880 ft 514 kts 45°
2026-04-21 22:41 28.37828 65.79748 30879 ft 514 kts 45°
2026-04-21 22:42 28.42764 65.85614 30892 ft 513 kts 45°
2026-04-21 22:42 28.47616 65.91389 30900 ft 513 kts 45°
2026-04-21 22:43 28.52403 65.97095 30914 ft 513 kts 45°
2026-04-21 22:43 28.57357 66.03010 30919 ft 513 kts 45°
2026-04-21 22:44 28.62270 66.08884 30932 ft 513 kts 45°
2026-04-21 22:44 28.67198 66.14784 30934 ft 513 kts 45°
2026-04-21 22:45 28.72118 66.20683 30942 ft 513 kts 45°
2026-04-21 22:45 28.77036 66.26589 30947 ft 513 kts 45°
2026-04-21 22:46 28.81125 66.31505 30950 ft 513 kts 45°
2026-04-21 22:46 28.86058 66.37445 30951 ft 513 kts 45°
2026-04-21 22:47 28.90946 66.43340 30952 ft 513 kts 45°
2026-04-21 22:47 28.95866 66.49281 30952 ft 513 kts 45°
2026-04-21 22:48 29.00762 66.55203 30950 ft 513 kts 45°
2026-04-21 22:48 29.05629 66.61093 30949 ft 513 kts 45°
2026-04-21 22:49 29.10529 66.67012 30945 ft 513 kts 45°
2026-04-21 22:49 29.15465 66.72979 30946 ft 512 kts 45°
2026-04-21 22:50 29.20330 66.78875 30941 ft 513 kts 45°
2026-04-21 22:50 29.25226 66.84818 30934 ft 513 kts 46°
2026-04-21 22:51 29.30117 66.90765 30923 ft 513 kts 46°
2026-04-21 22:51 29.34998 66.96707 30914 ft 512 kts 46°
2026-04-21 22:52 29.39885 67.02666 30910 ft 511 kts 46°
2026-04-21 22:52 29.44787 67.08652 30902 ft 511 kts 46°
2026-04-21 22:53 29.49635 67.14582 30879 ft 511 kts 46°
2026-04-21 22:53 29.54519 67.20566 30864 ft 511 kts 46°
2026-04-21 22:54 29.59396 67.26549 30862 ft 511 kts 46°
2026-04-21 22:54 29.64260 67.32524 30843 ft 511 kts 46°
2026-04-21 22:55 29.69116 67.38502 30828 ft 511 kts 46°
2026-04-21 22:55 29.73960 67.44470 30823 ft 511 kts 46°
2026-04-21 22:56 29.78824 67.50451 30819 ft 512 kts 46°
2026-04-21 22:56 29.83710 67.56456 30807 ft 512 kts 46°
2026-04-21 22:57 29.88572 67.62443 30802 ft 513 kts 46°
2026-04-21 22:57 29.93405 67.68409 30819 ft 513 kts 46°
2026-04-21 22:58 29.98292 67.74451 30826 ft 513 kts 46°
2026-04-21 22:58 30.03171 67.80492 30833 ft 514 kts 46°
2026-04-21 22:59 30.08036 67.86524 30851 ft 514 kts 46°
2026-04-21 22:59 30.12941 67.92543 30864 ft 514 kts 45°
2026-04-21 23:00 30.17884 67.98529 30885 ft 514 kts 45°
2026-04-21 23:00 30.22817 68.04533 30899 ft 514 kts 45°
2026-04-21 23:01 30.27739 68.10545 30902 ft 514 kts 45°
2026-04-21 23:01 30.32652 68.16599 30914 ft 514 kts 46°
2026-04-21 23:02 30.37534 68.22647 30904 ft 515 kts 46°
2026-04-21 23:02 30.42430 68.28718 30915 ft 515 kts 46°
2026-04-21 23:03 30.47319 68.34784 30907 ft 515 kts 46°
2026-04-21 23:03 30.52183 68.40827 30910 ft 516 kts 46°
2026-04-21 23:04 30.57076 68.46916 30899 ft 516 kts 46°
2026-04-21 23:04 30.61993 68.53045 30902 ft 516 kts 46°
2026-04-21 23:05 30.66856 68.59116 30898 ft 516 kts 46°
2026-04-21 23:05 30.71740 68.65223 30896 ft 516 kts 46°
2026-04-21 23:06 30.76624 68.71341 30898 ft 516 kts 46°
2026-04-21 23:06 30.81501 68.77459 30901 ft 515 kts 46°
2026-04-21 23:07 30.86374 68.83581 30902 ft 515 kts 46°
2026-04-21 23:07 30.91239 68.89704 30906 ft 515 kts 46°
2026-04-21 23:08 30.96097 68.95828 30902 ft 515 kts 46°
2026-04-21 23:08 31.00895 69.01886 30911 ft 514 kts 46°
2026-04-21 23:09 31.05751 69.08027 30904 ft 515 kts 46°
2026-04-21 23:09 31.10606 69.14176 30907 ft 515 kts 46°
2026-04-21 23:10 31.15419 69.20283 30907 ft 515 kts 46°
2026-04-21 23:10 31.20276 69.26456 30900 ft 515 kts 46°
2026-04-21 23:11 31.25119 69.32621 30899 ft 516 kts 46°
2026-04-21 23:11 31.29967 69.38802 30904 ft 516 kts 46°
2026-04-21 23:12 31.34968 69.44813 30891 ft 514 kts 39°
2026-04-21 23:12 31.40698 69.49755 30899 ft 511 kts 28°
2026-04-21 23:13 31.46849 69.54026 30902 ft 511 kts 28°
2026-04-21 23:13 31.52966 69.58266 30900 ft 511 kts 28°
2026-04-21 23:14 31.58932 69.62461 30894 ft 511 kts 28°
2026-04-21 23:14 31.65123 69.66849 30893 ft 510 kts 29°
2026-04-21 23:15 31.71199 69.71167 30885 ft 510 kts 29°
2026-04-21 23:15 31.77265 69.75479 30874 ft 509 kts 29°
2026-04-21 23:16 31.83322 69.79790 30874 ft 509 kts 29°
2026-04-21 23:16 31.89377 69.84107 30861 ft 509 kts 29°
2026-04-21 23:17 31.95425 69.88425 30853 ft 508 kts 29°
2026-04-21 23:17 32.01470 69.92750 30849 ft 508 kts 29°
2026-04-21 23:18 32.07464 69.97042 30837 ft 508 kts 29°
2026-04-21 23:18 32.13504 70.01375 30828 ft 508 kts 29°
2026-04-21 23:19 32.19544 70.05716 30829 ft 508 kts 29°
2026-04-21 23:19 32.25568 70.10051 30827 ft 509 kts 29°
2026-04-21 23:20 32.31941 70.13262 30825 ft 497 kts
2026-04-21 23:20 32.35372 70.13220 30839 ft 491 kts 347°
2026-04-21 23:20 32.38626 70.12111 30896 ft 488 kts 334°
2026-04-21 23:21 32.41641 70.10258 31134 ft 488 kts 325°
2026-04-21 23:21 32.44275 70.07789 31592 ft 480 kts 310°
2026-04-21 23:21 32.46379 70.04768 31907 ft 476 kts 306°
2026-04-21 23:21 32.47722 70.02699 31845 ft 480 kts 305°
2026-04-21 23:22 32.52396 69.95359 31869 ft 475 kts 306°
2026-04-21 23:22 32.55753 69.90201 31896 ft 474 kts 306°
2026-04-21 23:23 32.59821 69.84048 31916 ft 474 kts 306°
2026-04-21 23:23 32.63906 69.77894 31912 ft 474 kts 306°
2026-04-21 23:24 32.67987 69.71730 31928 ft 475 kts 306°
2026-04-21 23:24 32.72069 69.65549 31936 ft 476 kts 306°
2026-04-21 23:25 32.76101 69.59431 31941 ft 476 kts 306°
2026-04-21 23:25 32.80219 69.53174 31946 ft 476 kts 306°
2026-04-21 23:26 32.84303 69.46957 31946 ft 477 kts 306°
2026-04-21 23:26 32.88383 69.40735 31962 ft 477 kts 306°
2026-04-21 23:27 32.92451 69.34505 31963 ft 477 kts 306°
2026-04-21 23:27 32.96514 69.28268 31969 ft 477 kts 306°
2026-04-21 23:28 33.00579 69.22020 31969 ft 477 kts 306°
2026-04-21 23:28 33.04640 69.15767 31975 ft 477 kts 306°
2026-04-21 23:29 33.08696 69.09511 31981 ft 477 kts 306°
2026-04-21 23:29 33.12756 69.03240 31980 ft 477 kts 306°
2026-04-21 23:30 33.16807 68.96970 31983 ft 477 kts 306°
2026-04-21 23:30 33.20859 68.90688 31977 ft 477 kts 306°
2026-04-21 23:31 33.24910 68.84397 31974 ft 477 kts 306°
2026-04-21 23:31 33.28995 68.78157 31961 ft 477 kts 308°
2026-04-21 23:32 33.33304 68.72120 31982 ft 477 kts 309°
2026-04-21 23:32 33.37638 68.66124 31977 ft 477 kts 309°
2026-04-21 23:33 33.41973 68.60065 31977 ft 477 kts 309°
2026-04-21 23:33 33.46273 68.54020 31981 ft 477 kts 308°
2026-04-21 23:34 33.50599 68.47926 31990 ft 477 kts 308°
2026-04-21 23:34 33.54873 68.41901 31977 ft 477 kts 308°
2026-04-21 23:35 33.59129 68.35739 32003 ft 476 kts 307°
2026-04-21 23:35 33.63282 68.29614 32017 ft 476 kts 307°
2026-04-21 23:36 33.67466 68.23448 32005 ft 476 kts 307°
2026-04-21 23:36 33.71646 68.17298 32020 ft 475 kts 307°
2026-04-21 23:37 33.75826 68.11143 32029 ft 475 kts 307°
2026-04-21 23:37 33.79995 68.04993 32041 ft 474 kts 307°
2026-04-21 23:38 33.84154 67.98846 32055 ft 474 kts 307°
2026-04-21 23:38 33.88304 67.92701 32061 ft 473 kts 307°
2026-04-21 23:39 33.92443 67.86562 32056 ft 472 kts 307°
2026-04-21 23:39 33.96572 67.80429 32061 ft 470 kts 306°
2026-04-21 23:40 34.00664 67.74311 32055 ft 470 kts 306°
2026-04-21 23:40 34.04737 67.68148 32057 ft 469 kts 306°
2026-04-21 23:41 34.08797 67.61988 32058 ft 469 kts 306°
2026-04-21 23:41 34.12850 67.55835 32056 ft 469 kts 306°
2026-04-21 23:42 34.16766 67.49885 32051 ft 469 kts 306°
2026-04-21 23:42 34.20828 67.43705 32051 ft 469 kts 305°
2026-04-21 23:43 34.24433 67.38209 32051 ft 470 kts 305°
2026-04-21 23:43 34.28492 67.32010 32040 ft 471 kts 305°
2026-04-21 23:44 34.32552 67.25801 32043 ft 471 kts 305°
2026-04-21 23:44 34.36618 67.19571 32037 ft 470 kts 305°
2026-04-21 23:45 34.42655 67.10303 32020 ft 461 kts 304°
2026-04-21 23:46 34.46614 67.04213 32024 ft 456 kts 304°
2026-04-21 23:46 34.50491 66.98231 32029 ft 453 kts 304°
2026-04-21 23:47 34.54407 66.92185 32035 ft 454 kts 304°
2026-04-21 23:47 34.58294 66.86155 32034 ft 457 kts 304°
2026-04-21 23:48 34.62189 66.80097 32022 ft 457 kts 304°
2026-04-21 23:48 34.66096 66.74009 32025 ft 456 kts 303°
2026-04-21 23:49 34.69990 66.67932 32014 ft 455 kts 303°
2026-04-21 23:49 34.73898 66.61822 32029 ft 454 kts 303°
2026-04-21 23:50 34.77768 66.55761 32017 ft 455 kts 303°
2026-04-21 23:50 34.81666 66.49646 32019 ft 456 kts 303°
2026-04-21 23:51 34.85554 66.43536 32020 ft 456 kts 303°
2026-04-21 23:51 34.89447 66.37408 32019 ft 457 kts 303°
2026-04-21 23:52 34.93326 66.31290 32003 ft 457 kts 302°
2026-04-21 23:52 34.97206 66.25163 31993 ft 456 kts 302°
2026-04-21 23:53 35.01020 66.19087 32006 ft 455 kts 302°
2026-04-21 23:53 35.04889 66.12890 31998 ft 457 kts 302°
2026-04-21 23:54 35.08737 66.06715 32007 ft 457 kts 302°
2026-04-21 23:54 35.12590 66.00530 32000 ft 456 kts 302°
2026-04-21 23:55 35.16401 65.94405 32002 ft 455 kts 302°
2026-04-21 23:55 35.20240 65.88219 31993 ft 454 kts 302°
2026-04-21 23:56 35.24053 65.82064 31998 ft 454 kts 302°
2026-04-21 23:56 35.27221 65.76942 31995 ft 453 kts 302°
2026-04-21 23:57 35.31660 65.69758 31993 ft 453 kts 301°
2026-04-21 23:57 35.35438 65.63629 32002 ft 454 kts 301°
2026-04-21 23:58 35.39277 65.57386 31998 ft 455 kts 301°
2026-04-21 23:58 35.43070 65.51210 32011 ft 457 kts 301°
2026-04-21 23:59 35.46884 65.44993 32001 ft 458 kts 301°
2026-04-21 23:59 35.50719 65.38724 32010 ft 459 kts 301°
2026-04-22 00:00 35.53874 65.33559 32002 ft 461 kts 301°
2026-04-22 00:00 35.57729 65.27242 31935 ft 460 kts 301°
2026-04-22 00:01 35.61559 65.20960 31987 ft 458 kts 301°
2026-04-22 00:01 35.65353 65.14715 31978 ft 458 kts 300°
2026-04-22 00:02 35.69170 65.08420 31963 ft 459 kts 300°
2026-04-22 00:02 35.72986 65.02119 31952 ft 459 kts 300°
2026-04-22 00:03 35.76795 64.95815 31926 ft 460 kts 301°
2026-04-22 00:03 35.80611 64.89494 31926 ft 461 kts 300°
2026-04-22 00:04 35.84404 64.83194 31904 ft 463 kts 300°
2026-04-22 00:04 35.88285 64.76737 31900 ft 465 kts 300°
2026-04-22 00:05 35.92132 64.70328 31898 ft 465 kts 300°
2026-04-22 00:05 35.95981 64.63905 31880 ft 465 kts 300°
2026-04-22 00:06 35.99815 64.57492 31881 ft 463 kts 300°
2026-04-22 00:06 36.03636 64.51088 31880 ft 462 kts 300°
2026-04-22 00:07 36.07448 64.44688 31872 ft 462 kts 299°
2026-04-22 00:07 36.11242 64.38306 31878 ft 461 kts 299°
2026-04-22 00:08 36.15213 64.32060 31894 ft 469 kts 310°
2026-04-22 00:08 36.17881 64.29636 31886 ft 483 kts 324°
2026-04-22 00:08 36.20963 64.27957 31886 ft 497 kts 337°
2026-04-22 00:09 36.27835 64.26302 31875 ft 506 kts 345°
2026-04-22 00:09 36.34820 64.24862 31886 ft 510 kts 344°
2026-04-22 00:10 36.41812 64.23331 31883 ft 511 kts 344°
2026-04-22 00:10 36.48819 64.21724 31886 ft 512 kts 343°
2026-04-22 00:11 36.55830 64.20094 31884 ft 512 kts 343°
2026-04-22 00:11 36.62796 64.18477 31881 ft 512 kts 343°
2026-04-22 00:12 36.69799 64.16853 31881 ft 511 kts 343°
2026-04-22 00:12 36.76787 64.15230 31877 ft 511 kts 343°
2026-04-22 00:13 36.83778 64.13602 31877 ft 510 kts 343°
2026-04-22 00:13 36.90768 64.11972 31873 ft 511 kts 343°
2026-04-22 00:14 36.97735 64.10344 31868 ft 511 kts 343°
2026-04-22 00:14 37.04635 64.08729 31864 ft 512 kts 343°
2026-04-22 00:15 37.11651 64.07083 31857 ft 512 kts 343°
2026-04-22 00:15 37.18689 64.05429 31858 ft 513 kts 343°
2026-04-22 00:16 37.25579 64.03807 31852 ft 513 kts 343°
2026-04-22 00:16 37.32601 64.02150 31854 ft 514 kts 343°
2026-04-22 00:17 37.39623 64.00450 31851 ft 513 kts 342°
2026-04-22 00:17 37.46594 63.98577 31848 ft 513 kts 341°
2026-04-22 00:18 37.53577 63.96660 31838 ft 514 kts 341°
2026-04-22 00:18 37.60580 63.94758 31845 ft 514 kts 341°
2026-04-22 00:19 37.67558 63.92878 31846 ft 513 kts 341°
2026-04-22 00:19 37.74581 63.90986 31843 ft 513 kts 341°
2026-04-22 00:20 37.81548 63.89103 31841 ft 512 kts 341°
2026-04-22 00:20 37.88523 63.87214 31836 ft 512 kts 341°
2026-04-22 00:21 37.95454 63.85332 31838 ft 511 kts 341°
2026-04-22 00:21 38.02404 63.83441 31841 ft 511 kts 341°
2026-04-22 00:22 38.09366 63.81543 31834 ft 511 kts 341°
2026-04-22 00:22 38.16308 63.79647 31835 ft 512 kts 341°
2026-04-22 00:23 38.23339 63.77723 31831 ft 512 kts 341°
2026-04-22 00:23 38.30309 63.75812 31834 ft 513 kts 341°
2026-04-22 00:24 38.37257 63.73904 31834 ft 513 kts 341°
2026-04-22 00:24 38.44239 63.71982 31829 ft 514 kts 341°
2026-04-22 00:25 38.51232 63.70054 31834 ft 514 kts 341°
2026-04-22 00:25 38.58217 63.68123 31834 ft 515 kts 341°
2026-04-22 00:26 38.65218 63.66185 31832 ft 515 kts 341°
2026-04-22 00:26 38.72196 63.64249 31835 ft 515 kts 341°
2026-04-22 00:27 38.79195 63.62303 31836 ft 515 kts 341°
2026-04-22 00:27 38.86213 63.60330 31829 ft 513 kts 339°
2026-04-22 00:28 38.92797 63.57190 31841 ft 498 kts 326°
2026-04-22 00:28 38.98623 63.52628 31844 ft 486 kts 316°
2026-04-22 00:29 39.04141 63.47601 31828 ft 486 kts 316°
2026-04-22 00:29 39.09667 63.42576 31832 ft 486 kts 316°
2026-04-22 00:30 39.14776 63.37969 31839 ft 487 kts 316°
2026-04-22 00:30 39.20251 63.33046 31839 ft 487 kts 316°
2026-04-22 00:31 39.25743 63.28098 31841 ft 487 kts 316°
2026-04-22 00:31 39.31290 63.23090 31844 ft 487 kts 316°
2026-04-22 00:32 39.36850 63.18059 31847 ft 487 kts 316°
2026-04-22 00:32 39.42081 63.13316 31847 ft 487 kts 316°
2026-04-22 00:33 39.47597 63.08304 31860 ft 487 kts 316°
2026-04-22 00:33 39.53080 63.03312 31871 ft 488 kts 316°
2026-04-22 00:34 39.58603 62.98275 31869 ft 488 kts 315°
2026-04-22 00:34 39.64151 62.93205 31868 ft 488 kts 315°
2026-04-22 00:35 39.69696 62.88127 31859 ft 488 kts 315°
2026-04-22 00:35 39.75130 62.83140 31871 ft 487 kts 315°
2026-04-22 00:36 39.80606 62.78135 31874 ft 489 kts 317°
2026-04-22 00:36 39.86781 62.74101 31885 ft 506 kts 330°
2026-04-22 00:37 39.93631 62.71623 31878 ft 516 kts 339°
2026-04-22 00:37 39.99509 62.69916 31883 ft 517 kts 339°
2026-04-22 00:38 40.07639 62.67519 31880 ft 516 kts 339°
2026-04-22 00:38 40.14638 62.65373 31878 ft 516 kts 338°
2026-04-22 00:39 40.21612 62.63207 31885 ft 515 kts 338°
2026-04-22 00:39 40.27407 62.61405 31883 ft 514 kts 338°
2026-04-22 00:40 40.34364 62.59243 31882 ft 513 kts 338°
2026-04-22 00:40 40.41308 62.57082 31881 ft 512 kts 339°
2026-04-22 00:41 40.48252 62.54915 31883 ft 511 kts 339°
2026-04-22 00:41 40.55151 62.52758 31882 ft 509 kts 339°
2026-04-22 00:42 40.61966 62.50622 31881 ft 507 kts 339°
2026-04-22 00:42 40.68827 62.48448 31879 ft 505 kts 339°
2026-04-22 00:43 40.75637 62.46234 31886 ft 504 kts 339°
2026-04-22 00:43 40.82351 62.44076 31883 ft 502 kts 340°
2026-04-22 00:44 40.89119 62.41935 31881 ft 501 kts 340°
2026-04-22 00:44 40.95752 62.39826 31879 ft 499 kts 340°
2026-04-22 00:45 41.02529 62.37662 31876 ft 497 kts 340°
2026-04-22 00:45 41.09124 62.35556 31876 ft 496 kts 340°
2026-04-22 00:46 41.15789 62.33422 31866 ft 496 kts 340°
2026-04-22 00:46 41.22467 62.31278 31873 ft 495 kts 340°
2026-04-22 00:47 41.29128 62.29135 31871 ft 495 kts 340°
2026-04-22 00:47 41.35817 62.26980 31877 ft 495 kts 340°
2026-04-22 00:48 41.42570 62.24799 31873 ft 495 kts 340°
2026-04-22 00:48 41.49261 62.22634 31872 ft 495 kts 340°
2026-04-22 00:49 41.55962 62.20461 31868 ft 494 kts 340°
2026-04-22 00:49 41.62648 62.18287 31861 ft 493 kts 340°
2026-04-22 00:50 41.69323 62.16112 31861 ft 493 kts 340°
2026-04-22 00:50 41.75936 62.13954 31857 ft 492 kts 340°
2026-04-22 00:51 41.82629 62.11764 31855 ft 491 kts 340°
2026-04-22 00:51 41.89252 62.09592 31856 ft 491 kts 340°
2026-04-22 00:52 41.95883 62.07413 31855 ft 491 kts 340°
2026-04-22 00:52 42.02552 62.05211 31858 ft 491 kts 340°
2026-04-22 00:53 42.09241 62.02995 31842 ft 491 kts 340°
2026-04-22 00:53 42.15833 62.00806 31844 ft 491 kts 340°
2026-04-22 00:54 42.22501 61.98588 31851 ft 491 kts 340°
2026-04-22 00:54 42.29152 61.96371 31848 ft 491 kts 340°
2026-04-22 00:55 42.35777 61.94158 31847 ft 491 kts 340°
2026-04-22 00:55 42.45741 61.90820 31846 ft 492 kts 340°
2026-04-22 00:56 42.52389 61.88587 31845 ft 492 kts 340°
2026-04-22 00:56 42.59034 61.86350 31845 ft 492 kts 340°
2026-04-22 00:57 42.65671 61.84111 31838 ft 492 kts 340°
2026-04-22 00:57 42.72330 61.81860 31842 ft 492 kts 340°
2026-04-22 00:58 42.78973 61.79609 31839 ft 492 kts 340°
2026-04-22 00:58 42.85617 61.77352 31843 ft 492 kts 340°
2026-04-22 00:59 42.92264 61.75090 31840 ft 492 kts 340°
2026-04-22 00:59 42.98882 61.72832 31842 ft 491 kts 340°
2026-04-22 01:00 43.05475 61.70578 31838 ft 491 kts 340°
2026-04-22 01:00 43.12169 61.68285 31839 ft 491 kts 340°
2026-04-22 01:01 43.18793 61.66009 31842 ft 491 kts 340°
2026-04-22 01:01 43.25416 61.63730 31838 ft 490 kts 340°
2026-04-22 01:02 43.32036 61.61447 31839 ft 490 kts 340°
2026-04-22 01:02 43.38593 61.59180 31837 ft 490 kts 340°
2026-04-22 01:03 43.45206 61.56888 31837 ft 490 kts 340°
2026-04-22 01:03 43.51823 61.54590 31838 ft 490 kts 340°
2026-04-22 01:04 43.58426 61.52291 31839 ft 490 kts 340°
2026-04-22 01:04 43.65041 61.49983 31843 ft 490 kts 340°
2026-04-22 01:05 43.71593 61.47692 31840 ft 491 kts 340°
2026-04-22 01:05 43.78277 61.45349 31833 ft 491 kts 340°
2026-04-22 01:06 43.84864 61.43036 31836 ft 490 kts 340°
2026-04-22 01:06 43.91507 61.40697 31841 ft 490 kts 340°
2026-04-22 01:07 43.98127 61.38360 31824 ft 490 kts 340°
2026-04-22 01:07 44.04694 61.36037 31837 ft 490 kts 341°
2026-04-22 01:08 44.11313 61.33858 31833 ft 494 kts 346°
2026-04-22 01:08 44.18213 61.33204 31836 ft 500 kts 358°
2026-04-22 01:09 44.25182 61.34045 31838 ft 503 kts
2026-04-22 01:09 44.32157 61.35108 31835 ft 504 kts
2026-04-22 01:10 44.39066 61.36110 31836 ft 504 kts
2026-04-22 01:10 44.46011 61.37068 31832 ft 504 kts
2026-04-22 01:11 44.53032 61.38029 31826 ft 503 kts
2026-04-22 01:11 44.59916 61.38976 31818 ft 503 kts
2026-04-22 01:12 44.66675 61.39912 31823 ft 502 kts
2026-04-22 01:12 44.73640 61.40878 31820 ft 502 kts
2026-04-22 01:13 44.80511 61.41833 31821 ft 502 kts
2026-04-22 01:13 44.87465 61.42802 31822 ft 502 kts
2026-04-22 01:14 44.93257 61.43176 31815 ft 498 kts 355°
2026-04-22 01:14 45.00184 61.43017 31824 ft 498 kts 355°
2026-04-22 01:15 45.07106 61.42826 31825 ft 498 kts 355°
2026-04-22 01:15 45.14039 61.42683 31823 ft 498 kts 355°
2026-04-22 01:16 45.20934 61.42568 31829 ft 499 kts 355°
2026-04-22 01:16 45.27923 61.42454 31828 ft 499 kts 355°
2026-04-22 01:17 45.34862 61.42339 31830 ft 499 kts 355°
2026-04-22 01:17 45.41764 61.42222 31835 ft 498 kts 355°
2026-04-22 01:18 45.48690 61.42104 31825 ft 498 kts 355°
2026-04-22 01:18 45.55616 61.41985 31838 ft 498 kts 355°
2026-04-22 01:19 45.62397 61.41869 31836 ft 498 kts 355°
2026-04-22 01:19 45.69238 61.41752 31831 ft 498 kts 356°
2026-04-22 01:20 45.76159 61.41633 31835 ft 497 kts 356°
2026-04-22 01:20 45.83064 61.41515 31833 ft 497 kts 356°
2026-04-22 01:21 45.90014 61.41395 31837 ft 497 kts 356°
2026-04-22 01:21 45.96894 61.41407 31833 ft 499 kts
2026-04-22 01:22 46.03828 61.42333 31838 ft 501 kts
2026-04-22 01:22 46.10738 61.43381 31837 ft 502 kts
2026-04-22 01:23 46.17671 61.44389 31832 ft 503 kts
2026-04-22 01:23 46.24650 61.45369 31833 ft 503 kts
2026-04-22 01:24 46.31595 61.46338 31837 ft 504 kts
2026-04-22 01:24 46.38579 61.47318 31833 ft 504 kts
2026-04-22 01:25 46.45570 61.48304 31834 ft 505 kts
2026-04-22 01:25 46.52568 61.49294 31837 ft 505 kts
2026-04-22 01:26 46.59571 61.50287 31837 ft 506 kts
2026-04-22 01:26 46.66375 61.51255 31835 ft 506 kts
2026-04-22 01:27 46.73365 61.52251 31837 ft 507 kts
2026-04-22 01:27 46.80394 61.52690 31830 ft 500 kts 350°
2026-04-22 01:28 46.87083 61.50625 31840 ft 489 kts 334°
2026-04-22 01:28 46.93326 61.46801 31838 ft 486 kts 330°
2026-04-22 01:29 46.99548 61.42847 31841 ft 487 kts 331°
2026-04-22 01:29 47.05693 61.38998 31847 ft 487 kts 331°
2026-04-22 01:30 47.11928 61.35133 31851 ft 488 kts 331°
2026-04-22 01:30 47.18176 61.31264 31853 ft 488 kts 331°
2026-04-22 01:31 47.24265 61.27481 31851 ft 488 kts 331°
2026-04-22 01:31 47.30547 61.23567 31858 ft 487 kts 331°
2026-04-22 01:32 47.36766 61.19681 31858 ft 487 kts 331°
2026-04-22 01:32 47.42998 61.15776 31858 ft 487 kts 331°
2026-04-22 01:33 47.49218 61.11868 31862 ft 486 kts 331°
2026-04-22 01:33 47.55491 61.07912 32077 ft 495 kts 331°
2026-04-22 01:34 47.58666 61.05907 32563 ft 494 kts 331°
2026-04-22 01:34 47.61816 61.03920 33149 ft 491 kts 331°
2026-04-22 01:34 47.64945 61.01944 33663 ft 489 kts 331°
2026-04-22 01:34 47.68076 60.99961 33914 ft 492 kts 330°
2026-04-22 01:35 47.74387 60.95952 33870 ft 492 kts 331°
2026-04-22 01:35 47.80654 60.91967 33871 ft 490 kts 331°
2026-04-22 01:36 47.86932 60.87959 33876 ft 490 kts 330°
2026-04-22 01:36 47.93166 60.83969 33882 ft 490 kts 330°
2026-04-22 01:37 47.99434 60.79947 33897 ft 490 kts 330°
2026-04-22 01:37 48.05705 60.75913 33891 ft 491 kts 330°
2026-04-22 01:38 48.11960 60.71879 33891 ft 491 kts 330°
2026-04-22 01:38 48.18245 60.67815 33898 ft 491 kts 330°
2026-04-22 01:39 48.24510 60.63754 33893 ft 491 kts 330°
2026-04-22 01:39 48.30727 60.59710 33904 ft 490 kts 330°
2026-04-22 01:40 48.36981 60.55632 33902 ft 490 kts 330°
2026-04-22 01:40 48.43213 60.51558 33903 ft 489 kts 330°
2026-04-22 01:41 48.49454 60.47466 33907 ft 488 kts 330°
2026-04-22 01:41 48.55691 60.43365 33909 ft 488 kts 330°
2026-04-22 01:42 48.61869 60.39294 33910 ft 488 kts 330°
2026-04-22 01:42 48.68007 60.35237 33925 ft 487 kts 330°
2026-04-22 01:43 48.74257 60.31094 33916 ft 487 kts 330°
2026-04-22 01:43 48.80468 60.26967 33923 ft 487 kts 330°
2026-04-22 01:44 48.82515 60.25604 33930 ft 487 kts 330°
2026-04-22 01:44 48.92265 60.19097 33919 ft 488 kts 330°
2026-04-22 01:45 48.98415 60.14977 33920 ft 488 kts 330°
2026-04-22 01:45 49.04623 60.10808 33929 ft 488 kts 330°
2026-04-22 01:46 49.10822 60.06634 33932 ft 488 kts 330°
2026-04-22 01:46 49.17049 60.02429 33926 ft 488 kts 330°
2026-04-22 01:47 49.23263 59.98221 33935 ft 489 kts 330°
2026-04-22 01:47 49.29497 59.93987 33933 ft 489 kts 330°
2026-04-22 01:48 49.35510 59.89894 33940 ft 489 kts 330°
2026-04-22 01:48 49.41726 59.85649 33932 ft 490 kts 330°
2026-04-22 01:49 49.47767 59.81513 33931 ft 489 kts 330°
2026-04-22 01:49 49.53981 59.77247 33941 ft 489 kts 330°
2026-04-22 01:50 49.60171 59.72988 33941 ft 489 kts 330°
2026-04-22 01:50 49.66384 59.68700 33935 ft 488 kts 330°
2026-04-22 01:51 49.72565 59.64423 33930 ft 487 kts 330°
2026-04-22 01:51 49.78669 59.60185 33927 ft 486 kts 330°
2026-04-22 01:52 49.84838 59.55891 33932 ft 485 kts 329°
2026-04-22 01:52 49.90985 59.51600 33937 ft 484 kts 329°
2026-04-22 01:53 49.97079 59.47333 33921 ft 484 kts 329°
2026-04-22 01:53 50.03068 59.43129 33931 ft 483 kts 329°
2026-04-22 01:54 50.09192 59.38818 33936 ft 483 kts 329°
2026-04-22 01:54 50.15372 59.34455 33931 ft 483 kts 329°
2026-04-22 01:55 50.21503 59.30114 33934 ft 483 kts 329°
2026-04-22 01:55 50.27619 59.25772 33938 ft 483 kts 329°
2026-04-22 01:56 50.33738 59.21416 33933 ft 483 kts 329°
2026-04-22 01:56 50.39851 59.17051 33916 ft 483 kts 329°
2026-04-22 01:57 50.45913 59.12711 33925 ft 482 kts 328°
2026-04-22 01:57 50.52015 59.08329 33923 ft 482 kts 328°
2026-04-22 01:58 50.58126 59.03928 33926 ft 481 kts 328°
2026-04-22 01:58 50.64210 58.99534 33928 ft 481 kts 328°
2026-04-22 01:59 50.70253 58.95158 33926 ft 480 kts 328°
2026-04-22 01:59 50.76324 58.90749 33921 ft 480 kts 328°
2026-04-22 02:00 50.82395 58.86326 33921 ft 480 kts 328°
2026-04-22 02:00 50.88467 58.81889 33917 ft 480 kts 328°
2026-04-22 02:01 50.94539 58.77438 33920 ft 480 kts 328°
2026-04-22 02:01 51.00566 58.73009 33921 ft 480 kts 327°
2026-04-22 02:02 51.05644 58.69266 33919 ft 480 kts 327°
2026-04-22 02:02 51.11705 58.64788 33920 ft 481 kts 327°
2026-04-22 02:03 51.17770 58.60294 33913 ft 481 kts 327°
2026-04-22 02:03 51.23836 58.55786 33916 ft 481 kts 327°
2026-04-22 02:04 51.32928 58.49003 33918 ft 481 kts 327°
2026-04-22 02:05 51.38992 58.44463 33920 ft 481 kts 327°
2026-04-22 02:05 51.45049 58.39914 33920 ft 481 kts 327°
2026-04-22 02:06 51.51099 58.35360 33914 ft 481 kts 327°
2026-04-22 02:06 51.57317 58.31219 33897 ft 485 kts 331°
2026-04-22 02:07 51.63587 58.27405 33904 ft 484 kts 331°
2026-04-22 02:07 51.69915 58.23524 33903 ft 483 kts 331°
2026-04-22 02:08 51.76143 58.19639 33904 ft 483 kts 330°
2026-04-22 02:08 51.82403 58.15706 33894 ft 483 kts 330°
2026-04-22 02:09 51.88660 58.11767 33889 ft 482 kts 330°
2026-04-22 02:09 51.94916 58.07817 33893 ft 482 kts 330°
2026-04-22 02:10 52.01184 58.03849 33884 ft 483 kts 330°
2026-04-22 02:10 52.07440 57.99887 33882 ft 483 kts 330°
2026-04-22 02:11 52.13711 57.95909 33874 ft 484 kts 330°
2026-04-22 02:11 52.19977 57.91921 33874 ft 484 kts 330°
2026-04-22 02:12 52.26250 57.87914 33887 ft 484 kts 330°
2026-04-22 02:12 52.32509 57.83905 33864 ft 485 kts 330°
2026-04-22 02:13 52.38829 57.79829 33862 ft 485 kts 330°
2026-04-22 02:13 52.45063 57.75788 33871 ft 485 kts 330°
2026-04-22 02:14 52.51322 57.71719 33872 ft 485 kts 330°
2026-04-22 02:14 52.57596 57.67630 33866 ft 484 kts 330°
2026-04-22 02:15 52.63847 57.63544 33862 ft 483 kts 330°
2026-04-22 02:15 52.70100 57.59443 33855 ft 482 kts 330°
2026-04-22 02:16 52.76310 57.55356 33859 ft 480 kts 330°
2026-04-22 02:16 52.82508 57.51265 33861 ft 479 kts 330°
2026-04-22 02:17 52.88690 57.47174 33866 ft 478 kts 330°
2026-04-22 02:17 52.94868 57.43071 33857 ft 478 kts 330°
2026-04-22 02:18 53.01038 57.38959 33853 ft 477 kts 330°
2026-04-22 02:18 53.07187 57.34848 33851 ft 476 kts 330°
2026-04-22 02:19 53.13292 57.30755 33854 ft 476 kts 330°
2026-04-22 02:19 53.19460 57.26603 33852 ft 476 kts 330°
2026-04-22 02:20 53.25569 57.22464 33852 ft 474 kts 330°
2026-04-22 02:20 53.31682 57.18308 33855 ft 474 kts 330°
2026-04-22 02:21 53.37785 57.14147 33843 ft 473 kts 330°
2026-04-22 02:21 53.43747 57.10083 33852 ft 473 kts 330°
2026-04-22 02:22 53.49846 57.05937 33847 ft 472 kts 330°
2026-04-22 02:22 53.55937 57.01781 33844 ft 472 kts 330°
2026-04-22 02:23 53.61972 56.97644 33843 ft 471 kts 330°
2026-04-22 02:23 53.68044 56.93470 33841 ft 471 kts 330°
2026-04-22 02:24 53.74090 56.89270 33838 ft 470 kts 330°
2026-04-22 02:24 53.80154 56.85041 33836 ft 470 kts 330°
2026-04-22 02:25 53.86179 56.80853 33833 ft 470 kts 331°
2026-04-22 02:25 53.92269 56.76662 33816 ft 471 kts 331°
2026-04-22 02:26 53.98334 56.72459 33819 ft 471 kts 331°
2026-04-22 02:26 54.04349 56.68227 33822 ft 472 kts 330°
2026-04-22 02:27 54.10420 56.63934 33825 ft 473 kts 330°
2026-04-22 02:27 54.16502 56.59627 33824 ft 474 kts 331°
2026-04-22 02:28 54.22610 56.55290 33821 ft 475 kts 331°
2026-04-22 02:28 54.28709 56.50945 33818 ft 475 kts 331°
2026-04-22 02:29 54.34806 56.46587 33807 ft 475 kts 331°
2026-04-22 02:29 54.40955 56.42180 33806 ft 475 kts 331°
2026-04-22 02:30 54.46795 56.37090 33807 ft 466 kts 320°
2026-04-22 02:30 54.52080 56.30776 33813 ft 464 kts 319°
2026-04-22 02:31 54.57388 56.24428 33814 ft 465 kts 320°
2026-04-22 02:31 54.62730 56.18120 33811 ft 465 kts 320°
2026-04-22 02:32 54.68053 56.11776 33815 ft 465 kts 320°
2026-04-22 02:32 54.73376 56.05410 33808 ft 465 kts 320°
2026-04-22 02:33 54.78703 55.99023 33801 ft 465 kts 320°
2026-04-22 02:33 54.84020 55.92627 33796 ft 465 kts 320°
2026-04-22 02:34 54.89337 55.86209 33784 ft 465 kts 320°
2026-04-22 02:34 54.94638 55.79770 33785 ft 465 kts 320°
2026-04-22 02:35 54.99936 55.73316 33782 ft 465 kts 320°
2026-04-22 02:35 55.05235 55.66863 33777 ft 465 kts 320°
2026-04-22 02:36 55.10543 55.60401 33772 ft 465 kts 320°
2026-04-22 02:36 55.15854 55.53912 33767 ft 465 kts 320°
2026-04-22 02:37 55.21152 55.47411 33766 ft 465 kts 320°
2026-04-22 02:37 55.26480 55.40851 33766 ft 465 kts 320°
2026-04-22 02:38 55.31775 55.34311 33764 ft 465 kts 320°
2026-04-22 02:38 55.37065 55.27757 33761 ft 465 kts 320°
2026-04-22 02:39 55.42348 55.21183 33751 ft 465 kts 320°
2026-04-22 02:39 55.47621 55.14586 33758 ft 465 kts 320°
2026-04-22 02:40 55.52889 55.07969 33757 ft 465 kts 320°
2026-04-22 02:40 55.57253 55.02471 33750 ft 465 kts 320°
2026-04-22 02:41 55.62566 54.95759 33750 ft 465 kts 320°
2026-04-22 02:41 55.67826 54.89091 33746 ft 465 kts 320°
2026-04-22 02:42 55.73087 54.82401 33743 ft 465 kts 320°
2026-04-22 02:42 55.78347 54.75688 33741 ft 466 kts 320°
2026-04-22 02:43 55.83639 54.68911 33744 ft 466 kts 320°
2026-04-22 02:43 55.88905 54.62145 33726 ft 466 kts 320°
2026-04-22 02:44 55.94165 54.55362 33729 ft 467 kts 320°
2026-04-22 02:44 55.98705 54.49490 33720 ft 467 kts 320°
2026-04-22 02:45 56.03764 54.42924 33725 ft 467 kts 320°
2026-04-22 02:45 56.08898 54.36242 33723 ft 468 kts 320°
2026-04-22 02:46 56.13858 54.30011 33721 ft 469 kts 323°
2026-04-22 02:46 56.19255 54.23688 33719 ft 469 kts 323°
2026-04-22 02:47 56.24774 54.17177 33715 ft 468 kts 323°
2026-04-22 02:47 56.30161 54.10720 33713 ft 468 kts 323°
2026-04-22 02:48 56.35566 54.04201 33705 ft 467 kts 323°
2026-04-22 02:48 56.41010 53.97619 33705 ft 467 kts 323°
2026-04-22 02:49 56.46297 53.91181 33692 ft 466 kts 323°
2026-04-22 02:49 56.51566 53.84734 33697 ft 465 kts 323°
2026-04-22 02:50 56.53375 53.82523 33696 ft 465 kts 323°
2026-04-22 02:50 56.62363 53.71523 33692 ft 464 kts 323°
2026-04-22 02:51 56.67756 53.64888 33683 ft 464 kts 323°
2026-04-22 02:51 56.73095 53.58294 33682 ft 464 kts 323°
2026-04-22 02:52 56.77700 53.52589 33679 ft 464 kts 323°
2026-04-22 02:52 56.82592 53.46105 33684 ft 462 kts 317°
2026-04-22 02:53 56.86892 53.38166 33688 ft 459 kts 308°
2026-04-22 02:53 56.90632 53.29913 33679 ft 460 kts 307°
2026-04-22 02:54 56.94706 53.20884 33678 ft 460 kts 308°
2026-04-22 02:54 56.98806 53.11866 33673 ft 461 kts 308°
2026-04-22 02:55 57.02908 53.02845 33679 ft 462 kts 308°
2026-04-22 02:55 57.07028 52.93747 33677 ft 462 kts 308°
2026-04-22 02:56 57.11136 52.84659 33685 ft 462 kts 308°
2026-04-22 02:56 57.15246 52.75548 33684 ft 462 kts 308°
2026-04-22 02:57 57.19347 52.66421 33693 ft 463 kts 308°
2026-04-22 02:57 57.23430 52.57297 33690 ft 463 kts 308°
2026-04-22 02:58 57.27535 52.48085 33698 ft 463 kts 308°
2026-04-22 02:58 57.31435 52.39301 33683 ft 463 kts 308°
2026-04-22 02:59 57.35400 52.30339 33690 ft 463 kts 308°
2026-04-22 02:59 57.39548 52.21818 33680 ft 464 kts 320°
2026-04-22 03:00 57.44934 52.15908 33691 ft 468 kts 337°
2026-04-22 03:00 57.51067 52.12541 33716 ft 470 kts 343°
2026-04-22 03:01 57.57329 52.09420 33702 ft 472 kts 343°
2026-04-22 03:01 57.63302 52.06348 33712 ft 472 kts 342°
2026-04-22 03:02 57.69580 52.03026 33708 ft 472 kts 342°
2026-04-22 03:02 57.75943 51.99622 33712 ft 472 kts 342°
2026-04-22 03:03 57.82204 51.96262 33711 ft 471 kts 342°
2026-04-22 03:03 57.88502 51.92873 33713 ft 470 kts 342°
2026-04-22 03:04 57.94788 51.89480 33707 ft 469 kts 342°
2026-04-22 03:04 58.01064 51.86080 33715 ft 469 kts 342°
2026-04-22 03:05 58.07263 51.82709 33712 ft 468 kts 342°
2026-04-22 03:05 58.13520 51.79294 33712 ft 467 kts 342°
2026-04-22 03:06 58.19754 51.75879 33707 ft 467 kts 342°
2026-04-22 03:06 58.26000 51.72445 33705 ft 467 kts 342°
2026-04-22 03:07 58.32238 51.69003 33706 ft 467 kts 342°
2026-04-22 03:07 58.37430 51.66130 33706 ft 467 kts 342°
2026-04-22 03:08 58.43568 51.61978 33709 ft 466 kts 333°
2026-04-22 03:08 58.49234 51.56115 33710 ft 465 kts 329°
2026-04-22 03:09 58.54905 51.50076 33710 ft 466 kts 330°
2026-04-22 03:09 58.60634 51.44081 33706 ft 466 kts 330°
2026-04-22 03:10 58.66292 51.38137 33707 ft 467 kts 330°
2026-04-22 03:10 58.71981 51.32119 33706 ft 467 kts 330°
2026-04-22 03:11 58.77669 51.26081 33706 ft 467 kts 330°
2026-04-22 03:11 58.83356 51.20025 33711 ft 467 kts 330°
2026-04-22 03:12 58.89039 51.13952 33709 ft 466 kts 330°
2026-04-22 03:12 58.97549 51.04833 33704 ft 466 kts 330°
2026-04-22 03:13 59.03216 50.98735 33705 ft 465 kts 330°
2026-04-22 03:13 59.08902 50.92568 33705 ft 465 kts 330°
2026-04-22 03:14 59.14537 50.86416 33707 ft 464 kts 330°
2026-04-22 03:14 59.20170 50.80250 33710 ft 464 kts 330°
2026-04-22 03:15 59.26184 50.75991 33714 ft 464 kts 351°
2026-04-22 03:15 59.32631 50.76267 33696 ft 467 kts
2026-04-22 03:16 59.38991 50.78446 33696 ft 468 kts
2026-04-22 03:16 59.45411 50.80537 33702 ft 468 kts
2026-04-22 03:17 59.51849 50.82591 33697 ft 469 kts
2026-04-22 03:17 59.58291 50.84655 33693 ft 469 kts
2026-04-22 03:18 59.64731 50.86591 33694 ft 468 kts
2026-04-22 03:18 59.71194 50.88187 33686 ft 467 kts
2026-04-22 03:19 59.77638 50.89783 33683 ft 467 kts
2026-04-22 03:19 59.84072 50.91438 33678 ft 466 kts
2026-04-22 03:20 59.90497 50.93112 33679 ft 465 kts
2026-04-22 03:20 59.96909 50.94786 33673 ft 465 kts
2026-04-22 03:21 60.03272 50.96698 33671 ft 465 kts
2026-04-22 03:21 60.09641 50.99232 33670 ft 464 kts 11°
2026-04-22 03:22 60.15919 51.01800 33672 ft 465 kts 11°
2026-04-22 03:22 60.22264 51.04346 33672 ft 465 kts 10°
2026-04-22 03:23 60.28607 51.06873 33669 ft 465 kts 10°
2026-04-22 03:23 60.34957 51.09411 33666 ft 465 kts 10°
2026-04-22 03:24 60.41305 51.11961 33662 ft 465 kts 10°
2026-04-22 03:24 60.47634 51.14514 33665 ft 465 kts 10°
2026-04-22 03:25 60.54031 51.17092 33851 ft 472 kts 10°
2026-04-22 03:25 60.57252 51.18392 34198 ft 472 kts 10°
2026-04-22 03:25 60.60471 51.19695 34575 ft 472 kts 10°
2026-04-22 03:26 60.66933 51.22319 34656 ft 477 kts 10°
2026-04-22 03:26 60.73429 51.24969 34651 ft 471 kts 10°
2026-04-22 03:27 60.79874 51.27088 34649 ft 468 kts
2026-04-22 03:27 60.86332 51.26224 34652 ft 466 kts 348°
2026-04-22 03:28 60.92627 51.22866 34665 ft 467 kts 345°
2026-04-22 03:28 60.98919 51.19477 34657 ft 468 kts 345°
2026-04-22 03:29 61.05245 51.16188 34655 ft 469 kts 346°
2026-04-22 03:29 61.11580 51.12889 34654 ft 470 kts 346°
2026-04-22 03:30 61.17916 51.09561 34652 ft 471 kts 345°
2026-04-22 03:30 61.24273 51.06202 34652 ft 471 kts 345°
2026-04-22 03:31 61.30603 51.02841 34647 ft 470 kts 345°
2026-04-22 03:31 61.36943 50.99463 34651 ft 470 kts 345°
2026-04-22 03:32 61.43267 50.96078 34655 ft 469 kts 345°
2026-04-22 03:32 61.49588 50.92681 34659 ft 468 kts 345°
2026-04-22 03:33 61.55900 50.89274 34666 ft 468 kts 345°
2026-04-22 03:33 61.62197 50.85862 34667 ft 468 kts 345°
2026-04-22 03:34 61.68498 50.82475 34666 ft 467 kts 346°
2026-04-22 03:34 61.74814 50.79174 34660 ft 467 kts 346°
2026-04-22 03:35 61.81128 50.75866 34664 ft 467 kts 346°
2026-04-22 03:35 61.87432 50.72533 34656 ft 467 kts 346°
2026-04-22 03:36 61.93691 50.69204 34654 ft 467 kts 346°
2026-04-22 03:36 62.00051 50.65806 34650 ft 467 kts 346°
2026-04-22 03:37 62.06354 50.62425 34658 ft 467 kts 346°
2026-04-22 03:37 62.12633 50.59044 34663 ft 467 kts 346°
2026-04-22 03:38 62.18954 50.55635 34658 ft 467 kts 347°
2026-04-22 03:38 62.25368 50.53464 34665 ft 467 kts 353°
2026-04-22 03:39 62.31812 50.51938 34659 ft 467 kts 353°
2026-04-22 03:39 62.38261 50.50348 34665 ft 466 kts 353°
2026-04-22 03:40 62.44710 50.48682 34665 ft 466 kts 353°
2026-04-22 03:40 62.51151 50.47003 34667 ft 466 kts 353°
2026-04-22 03:41 62.57570 50.44957 34676 ft 466 kts 348°
2026-04-22 03:41 62.63901 50.42002 34672 ft 466 kts 347°
2026-04-22 03:42 62.70229 50.38942 34677 ft 466 kts 347°
2026-04-22 03:42 62.76560 50.35922 34669 ft 466 kts 348°
2026-04-22 03:43 62.82891 50.32929 34674 ft 465 kts 348°
2026-04-22 03:43 62.89217 50.29934 34674 ft 465 kts 347°
2026-04-22 03:44 62.95546 50.26924 34672 ft 465 kts 347°
2026-04-22 03:44 63.01862 50.23905 34675 ft 464 kts 347°
2026-04-22 03:45 63.08168 50.20875 34673 ft 464 kts 347°
2026-04-22 03:45 63.14480 50.17830 34673 ft 464 kts 347°
2026-04-22 03:46 63.20788 50.14774 34670 ft 464 kts 347°
2026-04-22 03:46 63.27097 50.11702 34672 ft 464 kts 347°
2026-04-22 03:47 63.33406 50.08617 34667 ft 464 kts 347°
2026-04-22 03:47 63.39709 50.05522 34669 ft 464 kts 347°
2026-04-22 03:48 63.46026 50.02405 34670 ft 464 kts 347°
2026-04-22 03:48 63.51264 49.99810 34662 ft 464 kts 347°
2026-04-22 03:49 63.58632 49.96143 34661 ft 464 kts 347°
2026-04-22 03:49 63.63875 49.93522 34661 ft 464 kts 347°
2026-04-22 03:50 63.70173 49.90361 34659 ft 464 kts 347°
2026-04-22 03:50 63.76467 49.87183 34657 ft 463 kts 347°
2026-04-22 03:51 63.82764 49.83988 34657 ft 463 kts 347°
2026-04-22 03:51 63.89047 49.80785 34655 ft 463 kts 347°
2026-04-22 03:52 63.95335 49.77566 34654 ft 463 kts 347°
2026-04-22 03:52 64.01610 49.74338 34649 ft 463 kts 347°
2026-04-22 03:53 64.07892 49.71093 34647 ft 463 kts 347°
2026-04-22 03:53 64.13881 49.67984 34643 ft 462 kts 347°
2026-04-22 03:54 64.20146 49.64716 34640 ft 462 kts 347°
2026-04-22 03:54 64.26426 49.61427 34642 ft 462 kts 346°
2026-04-22 03:55 64.32686 49.58132 34638 ft 462 kts 346°
2026-04-22 03:55 64.38950 49.54820 34636 ft 461 kts 346°
2026-04-22 03:56 64.45199 49.51500 34629 ft 461 kts 346°
2026-04-22 03:56 64.51449 49.48165 34625 ft 461 kts 346°
2026-04-22 03:57 64.57691 49.44817 34625 ft 460 kts 346°
2026-04-22 03:57 64.63932 49.41453 34618 ft 460 kts 346°
2026-04-22 03:58 64.70170 49.38075 34614 ft 460 kts 346°
2026-04-22 03:58 64.76417 49.34677 34609 ft 460 kts 346°
2026-04-22 03:59 64.82646 49.31172 34606 ft 460 kts 345°
2026-04-22 03:59 64.88831 49.27356 34606 ft 460 kts 344°
2026-04-22 04:00 64.95026 49.23494 34599 ft 460 kts 344°
2026-04-22 04:00 65.01220 49.19660 34598 ft 461 kts 344°
2026-04-22 04:01 65.07424 49.15817 34590 ft 461 kts 344°
2026-04-22 04:01 65.13586 49.11980 34587 ft 461 kts 344°
2026-04-22 04:02 65.19796 49.08096 34580 ft 461 kts 344°
2026-04-22 04:02 65.26031 49.04197 34576 ft 462 kts 344°
2026-04-22 04:03 65.32204 49.00340 34568 ft 462 kts 344°
2026-04-22 04:03 65.38449 48.96414 34568 ft 462 kts 344°
2026-04-22 04:04 65.44663 48.92459 34570 ft 462 kts 343°
2026-04-22 04:04 65.50869 48.88467 34560 ft 463 kts 343°
2026-04-22 04:05 65.57090 48.84453 34554 ft 463 kts 343°
2026-04-22 04:05 65.63312 48.80472 34549 ft 463 kts 345°
2026-04-22 04:06 65.69690 48.78041 34538 ft 465 kts 351°
2026-04-22 04:06 65.76119 48.76153 34549 ft 465 kts 351°
2026-04-22 04:07 65.82508 48.74130 34540 ft 465 kts 351°
2026-04-22 04:07 65.88957 48.72040 34543 ft 466 kts 351°
2026-04-22 04:08 65.95373 48.69969 34534 ft 466 kts 351°
2026-04-22 04:08 66.01791 48.67889 34539 ft 466 kts 351°
2026-04-22 04:09 66.08209 48.65797 34530 ft 466 kts 351°
2026-04-22 04:09 66.14659 48.63682 34530 ft 466 kts 351°
2026-04-22 04:10 66.21097 48.61560 34525 ft 467 kts 351°
2026-04-22 04:10 66.27534 48.59428 34526 ft 467 kts 351°
2026-04-22 04:11 66.33964 48.57287 34515 ft 467 kts 351°
2026-04-22 04:11 66.40403 48.55132 34518 ft 467 kts 351°
2026-04-22 04:12 66.46818 48.52974 34510 ft 467 kts 351°
2026-04-22 04:12 66.53305 48.50781 34515 ft 467 kts 351°
2026-04-22 04:13 66.59751 48.48589 34504 ft 467 kts 351°
2026-04-22 04:13 66.66149 48.46402 34508 ft 468 kts 351°
2026-04-22 04:14 66.72600 48.44186 34500 ft 468 kts 351°
2026-04-22 04:14 66.79047 48.41959 34498 ft 468 kts 351°
2026-04-22 04:15 66.85496 48.39721 34489 ft 468 kts 351°
2026-04-22 04:15 66.91943 48.37460 34485 ft 468 kts 351°
2026-04-22 04:16 67.01612 48.34025 34482 ft 468 kts 351°
2026-04-22 04:17 67.08057 48.31723 34472 ft 467 kts 351°
2026-04-22 04:17 67.14496 48.29412 34473 ft 467 kts 351°
2026-04-22 04:18 67.20937 48.27096 34462 ft 467 kts 351°
2026-04-22 04:18 67.27379 48.24792 34466 ft 467 kts 350°
2026-04-22 04:19 67.33811 48.22478 34451 ft 467 kts 350°
2026-04-22 04:19 67.40240 48.20149 34459 ft 466 kts 350°
2026-04-22 04:20 67.46647 48.17816 34445 ft 466 kts 350°
2026-04-22 04:20 67.53077 48.15457 34444 ft 465 kts 350°
2026-04-22 04:21 67.59489 48.13080 34435 ft 465 kts 350°
2026-04-22 04:21 67.65900 48.10691 34433 ft 465 kts 350°
2026-04-22 04:22 67.72306 48.08293 34425 ft 465 kts 350°
2026-04-22 04:22 67.78715 48.05880 34427 ft 465 kts 350°
2026-04-22 04:23 67.85119 48.03456 34414 ft 465 kts 350°
2026-04-22 04:23 67.91520 48.01020 34414 ft 465 kts 350°
2026-04-22 04:24 67.97922 47.98570 34403 ft 465 kts 350°
2026-04-22 04:24 68.04319 47.96108 34406 ft 465 kts 350°
2026-04-22 04:25 68.10717 47.93633 34394 ft 465 kts 350°
2026-04-22 04:25 68.17125 47.91137 34397 ft 465 kts 350°
2026-04-22 04:26 68.23524 47.88632 34384 ft 465 kts 350°
2026-04-22 04:26 68.29918 47.86116 34388 ft 464 kts 350°
2026-04-22 04:27 68.36307 47.83586 34374 ft 464 kts 350°
2026-04-22 04:27 68.42694 47.81042 34372 ft 464 kts 350°
2026-04-22 04:28 68.49077 47.78486 34366 ft 463 kts 350°
2026-04-22 04:28 68.55458 47.75918 34362 ft 463 kts 350°
2026-04-22 04:29 68.61832 47.73343 34356 ft 463 kts 350°
2026-04-22 04:29 68.68219 47.70750 34355 ft 463 kts 350°
2026-04-22 04:30 68.74585 47.68151 34336 ft 463 kts 350°
2026-04-22 04:30 68.80951 47.65536 34339 ft 462 kts 350°
2026-04-22 04:31 68.87304 47.62910 34331 ft 461 kts 350°
2026-04-22 04:31 68.93640 47.60278 34330 ft 460 kts 350°
2026-04-22 04:32 68.99976 47.57629 34318 ft 460 kts 350°
2026-04-22 04:32 69.05226 47.55423 34324 ft 459 kts 350°
2026-04-22 04:33 69.11543 47.52754 34306 ft 459 kts 350°
2026-04-22 04:33 69.17850 47.50074 34307 ft 458 kts 350°
2026-04-22 04:34 69.24155 47.47378 34299 ft 458 kts 350°
2026-04-22 04:34 69.30450 47.44672 34297 ft 457 kts 350°
2026-04-22 04:35 69.36739 47.41951 34286 ft 457 kts 350°
2026-04-22 04:35 69.43025 47.39216 34283 ft 457 kts 350°
2026-04-22 04:36 69.49310 47.36466 34272 ft 457 kts 350°
2026-04-22 04:36 69.55587 47.33702 34276 ft 456 kts 349°
2026-04-22 04:37 69.61857 47.30924 34264 ft 456 kts 349°
2026-04-22 04:37 69.68131 47.28129 34266 ft 456 kts 349°
2026-04-22 04:38 69.74358 47.25338 34250 ft 456 kts 349°
2026-04-22 04:38 69.80663 47.22494 34253 ft 456 kts 349°
2026-04-22 04:39 69.86923 47.19657 34239 ft 456 kts 349°
2026-04-22 04:39 69.93145 47.16813 34242 ft 455 kts 349°
2026-04-22 04:40 69.99407 47.13931 34232 ft 456 kts 349°
2026-04-22 04:40 70.02587 47.12460 34471 ft 461 kts 349°
2026-04-22 04:40 70.05794 47.10967 34394 ft 472 kts 349°
2026-04-22 04:41 70.12373 47.07892 34287 ft 483 kts 349°
2026-04-22 04:41 70.18996 47.04796 34231 ft 480 kts 349°
2026-04-22 04:42 70.25569 47.01700 34215 ft 477 kts 349°
2026-04-22 04:42 70.32108 46.98594 34207 ft 475 kts 349°
2026-04-22 04:43 70.38621 46.95481 34218 ft 473 kts 349°
2026-04-22 04:43 70.45122 46.92351 34206 ft 473 kts 349°
2026-04-22 04:44 70.51622 46.89202 34202 ft 473 kts 349°
2026-04-22 04:44 70.58124 46.86030 34203 ft 474 kts 349°
2026-04-22 04:45 70.64654 46.82827 34204 ft 475 kts 349°
2026-04-22 04:45 70.71189 46.79599 34196 ft 476 kts 349°
2026-04-22 04:46 70.77735 46.76343 34193 ft 477 kts 349°
2026-04-22 04:46 70.84287 46.73064 34187 ft 477 kts 349°
2026-04-22 04:47 70.90840 46.69762 34180 ft 478 kts 349°
2026-04-22 04:47 70.97395 46.66437 34178 ft 478 kts 349°
2026-04-22 04:48 71.03948 46.63090 34182 ft 477 kts 349°
2026-04-22 04:48 71.10500 46.59722 34174 ft 477 kts 349°
2026-04-22 04:49 71.17048 46.56331 34176 ft 477 kts 349°
2026-04-22 04:49 71.23591 46.52921 34169 ft 477 kts 349°
2026-04-22 04:50 71.30128 46.49491 34166 ft 476 kts 349°
2026-04-22 04:50 71.36663 46.46037 34162 ft 476 kts 349°
2026-04-22 04:51 71.43196 46.42562 34161 ft 476 kts 349°
2026-04-22 04:51 71.49722 46.39048 34161 ft 476 kts 348°
2026-04-22 04:52 71.56063 46.33413 34159 ft 474 kts 339°
2026-04-22 04:52 71.62255 46.26154 34155 ft 474 kts 338°
2026-04-22 04:53 71.68427 46.18783 34151 ft 474 kts 338°
2026-04-22 04:53 71.74605 46.11482 34153 ft 474 kts 339°
2026-04-22 04:54 71.80794 46.04194 34151 ft 474 kts 339°
2026-04-22 04:54 71.86981 45.96877 34149 ft 474 kts 339°
2026-04-22 04:55 71.93165 45.89508 34147 ft 474 kts 339°
2026-04-22 04:55 71.99341 45.82091 34144 ft 474 kts 339°
2026-04-22 04:56 72.05521 45.74615 34142 ft 474 kts 339°
2026-04-22 04:56 72.11695 45.67093 34138 ft 474 kts 339°
2026-04-22 04:57 72.17867 45.59520 34140 ft 474 kts 338°
2026-04-22 04:57 72.24039 45.51893 34135 ft 474 kts 338°
2026-04-22 04:58 72.30207 45.44215 34143 ft 474 kts 338°
2026-04-22 04:58 72.36368 45.36491 34142 ft 474 kts 338°
2026-04-22 04:59 72.42528 45.28710 34146 ft 474 kts 338°
2026-04-22 04:59 72.48686 45.20876 34148 ft 474 kts 338°
2026-04-22 05:00 72.54831 45.13000 34152 ft 473 kts 338°
2026-04-22 05:00 72.60978 45.05066 34161 ft 473 kts 338°
2026-04-22 05:01 72.67071 44.97143 34169 ft 472 kts 338°
2026-04-22 05:01 72.73230 44.89074 34173 ft 471 kts 338°
2026-04-22 05:02 72.79319 44.81037 34174 ft 469 kts 338°
2026-04-22 05:02 72.85350 44.73018 34187 ft 468 kts 338°
2026-04-22 05:03 72.91408 44.64904 34195 ft 467 kts 338°
2026-04-22 05:03 72.97449 44.56753 34212 ft 467 kts 338°
2026-04-22 05:04 73.03476 44.48559 34212 ft 466 kts 338°
2026-04-22 05:04 73.09500 44.40310 34228 ft 466 kts 338°
2026-04-22 05:05 73.15521 44.32002 34240 ft 466 kts 338°
2026-04-22 05:05 73.21534 44.23642 34246 ft 466 kts 338°
2026-04-22 05:06 73.27556 44.15206 34253 ft 467 kts 338°
2026-04-22 05:06 73.33577 44.06709 34259 ft 467 kts 338°
2026-04-22 05:07 73.39588 43.98160 34275 ft 467 kts 338°
2026-04-22 05:07 73.45607 43.89535 34280 ft 467 kts 338°
2026-04-22 05:08 73.51623 43.80847 34284 ft 468 kts 338°
2026-04-22 05:08 73.57636 43.72097 34294 ft 467 kts 338°
2026-04-22 05:09 73.63641 43.63290 34300 ft 466 kts 338°
2026-04-22 05:09 73.69633 43.54434 34307 ft 466 kts 338°
2026-04-22 05:10 73.75614 43.45532 34316 ft 466 kts 338°
2026-04-22 05:10 73.81585 43.36598 34318 ft 465 kts 338°
2026-04-22 05:11 73.87547 43.27654 34325 ft 464 kts 338°
2026-04-22 05:11 73.93452 43.18732 34335 ft 463 kts 338°
2026-04-22 05:12 73.99380 43.09694 34339 ft 462 kts 338°
2026-04-22 05:12 74.05299 43.00599 34349 ft 462 kts 338°
2026-04-22 05:13 74.11186 42.91481 34349 ft 457 kts 338°
2026-04-22 05:13 74.16977 42.82436 34359 ft 452 kts 338°
2026-04-22 05:14 74.22762 42.73338 34362 ft 451 kts 338°
2026-04-22 05:14 74.28525 42.64203 34379 ft 454 kts 338°
2026-04-22 05:15 74.34311 42.54957 34371 ft 450 kts 338°
2026-04-22 05:15 74.40039 42.45728 34389 ft 451 kts 338°
2026-04-22 05:16 74.45815 42.36358 34387 ft 450 kts 338°
2026-04-22 05:16 74.50560 42.28592 34393 ft 443 kts 338°
2026-04-22 05:17 74.56287 42.19164 34406 ft 453 kts 338°
2026-04-22 05:17 74.61992 42.09692 34405 ft 446 kts 338°
2026-04-22 05:18 74.70570 41.95308 34409 ft 447 kts 338°
2026-04-22 05:18 74.76246 41.85696 34428 ft 448 kts 337°
2026-04-22 05:19 74.81910 41.76038 34435 ft 446 kts 338°
2026-04-22 05:19 74.87589 41.66503 34437 ft 449 kts 339°
2026-04-22 05:20 74.93274 41.57073 34442 ft 445 kts 338°
2026-04-22 05:20 74.98999 41.47493 34446 ft 449 kts 338°
2026-04-22 05:21 75.04687 41.37854 34454 ft 445 kts 338°
2026-04-22 05:21 75.10383 41.28122 34441 ft 448 kts 338°
2026-04-22 05:22 75.16057 41.18341 34444 ft 446 kts 338°
2026-04-22 05:22 75.21712 41.08510 34455 ft 446 kts 338°
2026-04-22 05:23 75.27396 40.98551 34453 ft 446 kts 338°
2026-04-22 05:23 75.33037 40.88585 34470 ft 447 kts 338°
2026-04-22 05:24 75.38714 40.78468 34463 ft 445 kts 338°
2026-04-22 05:24 75.44359 40.68319 34473 ft 447 kts 338°
2026-04-22 05:25 75.50018 40.58074 34482 ft 446 kts 338°
2026-04-22 05:25 75.55680 40.47726 34472 ft 446 kts 338°
2026-04-22 05:26 75.61313 40.37345 34502 ft 447 kts 338°
2026-04-22 05:26 75.66953 40.26867 34503 ft 445 kts 338°
2026-04-22 05:27 75.72580 40.16325 34518 ft 448 kts 337°
2026-04-22 05:27 75.78203 40.05690 34511 ft 443 kts 337°
2026-04-22 05:28 75.83836 39.94946 34519 ft 449 kts 337°
2026-04-22 05:28 75.89519 39.84021 34530 ft 454 kts 337°
2026-04-22 05:29 75.95260 39.72888 34529 ft 458 kts 337°
2026-04-22 05:29 76.01039 39.61574 34534 ft 461 kts 336°
2026-04-22 05:30 76.06798 39.50192 34532 ft 458 kts 336°
2026-04-22 05:30 76.12550 39.38727 34545 ft 460 kts 336°
2026-04-22 05:31 76.18320 39.27119 34539 ft 458 kts 336°
2026-04-22 05:31 76.24013 39.15556 34541 ft 452 kts 336°
2026-04-22 05:32 76.29642 39.04027 34548 ft 448 kts 336°
2026-04-22 05:32 76.35236 38.92468 34551 ft 447 kts 336°
2026-04-22 05:33 76.40816 38.80835 34561 ft 448 kts 336°
2026-04-22 05:33 76.46416 38.69054 34559 ft 449 kts 336°
2026-04-22 05:34 76.52020 38.57153 34567 ft 450 kts 336°
2026-04-22 05:34 76.57632 38.45126 34575 ft 452 kts 336°
2026-04-22 05:35 76.63254 38.32964 34578 ft 452 kts 336°
2026-04-22 05:35 76.68879 38.20682 34580 ft 453 kts 335°
2026-04-22 05:36 76.74497 38.08300 34584 ft 453 kts 335°
2026-04-22 05:36 76.80106 37.95822 34585 ft 452 kts 335°
2026-04-22 05:37 76.85697 37.83265 34588 ft 451 kts 335°
2026-04-22 05:37 76.91268 37.70636 34593 ft 450 kts 335°
2026-04-22 05:38 76.96824 37.57921 34596 ft 449 kts 335°
2026-04-22 05:38 77.02360 37.45130 34598 ft 448 kts 335°
2026-04-22 05:39 77.07880 37.32255 34600 ft 448 kts 335°
2026-04-22 05:39 77.13392 37.19277 34611 ft 447 kts 335°
2026-04-22 05:40 77.18886 37.06215 34613 ft 446 kts 334°
2026-04-22 05:40 77.24367 36.93059 34617 ft 446 kts 334°
2026-04-22 05:41 77.29797 36.79899 34617 ft 446 kts 334°
2026-04-22 05:41 77.35262 36.66524 34619 ft 445 kts 334°
2026-04-22 05:42 77.40706 36.53074 34623 ft 445 kts 334°
2026-04-22 05:42 77.46152 36.39484 34631 ft 445 kts 334°
2026-04-22 05:43 77.51582 36.25812 34631 ft 445 kts 334°
2026-04-22 05:43 77.57010 36.12030 34654 ft 445 kts 334°
2026-04-22 05:44 77.62500 35.98201 35149 ft 450 kts 334°
2026-04-22 05:44 77.65246 35.91257 35577 ft 449 kts 334°
2026-04-22 05:44 77.68002 35.84252 35636 ft 454 kts 334°
2026-04-22 05:45 77.73527 35.70073 35641 ft 450 kts 334°
2026-04-22 05:45 77.78972 35.55934 35638 ft 445 kts 334°
2026-04-22 05:46 77.84389 35.41737 35655 ft 444 kts 333°
2026-04-22 05:46 77.89786 35.27449 35657 ft 444 kts 333°
2026-04-22 05:47 77.95186 35.13019 35664 ft 445 kts 333°
2026-04-22 05:47 78.00723 34.99948 35668 ft 443 kts 340°
2026-04-22 05:48 78.06594 34.91248 35672 ft 441 kts 347°
2026-04-22 05:48 78.12557 34.83930 35667 ft 442 kts 347°
2026-04-22 05:49 78.18527 34.76562 35671 ft 443 kts 347°
2026-04-22 05:49 78.24498 34.68977 35667 ft 443 kts 347°
2026-04-22 05:50 78.30470 34.61234 35670 ft 444 kts 346°
2026-04-22 05:50 78.36431 34.53403 35678 ft 444 kts 346°
2026-04-22 05:51 78.42392 34.45490 35675 ft 443 kts 346°
2026-04-22 05:51 78.48347 34.37505 35680 ft 443 kts 346°
2026-04-22 05:52 78.54299 34.29441 35684 ft 443 kts 346°
2026-04-22 05:52 78.60238 34.21309 35684 ft 442 kts 346°
2026-04-22 05:53 78.66175 34.13093 35699 ft 442 kts 346°
2026-04-22 05:53 78.72061 34.04860 35678 ft 442 kts 346°
2026-04-22 05:54 78.77984 33.96487 35680 ft 442 kts 346°
2026-04-22 05:54 78.83902 33.88028 35678 ft 441 kts 346°
2026-04-22 05:55 78.89819 33.79479 35694 ft 441 kts 346°
2026-04-22 05:55 78.95728 33.70848 35696 ft 441 kts 345°
2026-04-22 05:56 79.01620 33.62146 35692 ft 441 kts 345°
2026-04-22 05:56 79.07529 33.53322 35693 ft 441 kts 345°
2026-04-22 05:57 79.13418 33.44430 35697 ft 441 kts 345°
2026-04-22 05:57 79.19329 33.35405 35697 ft 441 kts 345°
2026-04-22 05:58 79.25221 33.26307 35697 ft 441 kts 345°
2026-04-22 05:58 79.31109 33.17113 35699 ft 441 kts 345°
2026-04-22 05:59 79.36993 33.07819 35700 ft 441 kts 345°
2026-04-22 05:59 79.42879 32.98415 35701 ft 441 kts 345°
2026-04-22 06:00 79.48754 32.88922 35700 ft 441 kts 345°
2026-04-22 06:00 79.54630 32.79315 35700 ft 441 kts 344°
2026-04-22 06:01 79.59555 32.71177 35698 ft 441 kts 344°
2026-04-22 06:01 79.66373 32.59779 35704 ft 441 kts 344°
2026-04-22 06:02 79.71250 32.51531 35700 ft 441 kts 344°
2026-04-22 06:02 79.77113 32.41507 35702 ft 441 kts 344°
2026-04-22 06:03 79.82973 32.31367 35701 ft 440 kts 344°
2026-04-22 06:03 79.88834 32.21105 35705 ft 440 kts 343°
2026-04-22 06:04 79.94688 32.10729 35699 ft 440 kts 343°
2026-04-22 06:04 80.00538 32.00238 35708 ft 440 kts 343°
2026-04-22 06:05 80.06384 31.89623 35705 ft 441 kts 343°
2026-04-22 06:05 80.12230 31.78878 35714 ft 441 kts 343°
2026-04-22 06:06 80.18069 31.68014 35705 ft 441 kts 343°
2026-04-22 06:06 80.23923 31.56987 35705 ft 441 kts 343°
2026-04-22 06:07 80.29766 31.45839 35707 ft 441 kts 343°
2026-04-22 06:07 80.35608 31.34555 35708 ft 441 kts 342°
2026-04-22 06:08 80.41443 31.23140 35710 ft 441 kts 342°
2026-04-22 06:08 80.47237 31.11662 35707 ft 441 kts 342°
2026-04-22 06:09 80.53104 30.99889 35708 ft 441 kts 342°
2026-04-22 06:09 80.58932 30.88043 35709 ft 441 kts 342°
2026-04-22 06:10 80.64713 30.76139 35709 ft 441 kts 342°
2026-04-22 06:10 80.70571 30.63919 35708 ft 441 kts 342°
2026-04-22 06:11 80.76342 30.51720 35714 ft 441 kts 342°
2026-04-22 06:11 80.82147 30.39290 35712 ft 441 kts 341°
2026-04-22 06:12 80.87953 30.26688 35713 ft 441 kts 341°
2026-04-22 06:12 80.93798 30.13842 35715 ft 441 kts 341°
2026-04-22 06:13 80.99555 30.01000 35714 ft 442 kts 340°
2026-04-22 06:13 81.05260 29.86300 35709 ft 442 kts 338°
2026-04-22 06:14 81.10920 29.70866 35714 ft 442 kts 338°
2026-04-22 06:14 81.16616 29.55178 35712 ft 442 kts 338°
2026-04-22 06:15 81.22279 29.39475 35719 ft 442 kts 338°
2026-04-22 06:15 81.27939 29.23601 35718 ft 442 kts 337°
2026-04-22 06:16 81.33593 29.07526 35721 ft 442 kts 337°
2026-04-22 06:16 81.39198 28.91357 35719 ft 442 kts 337°
2026-04-22 06:17 81.44839 28.74853 35721 ft 442 kts 336°
2026-04-22 06:17 81.50475 28.58125 35720 ft 443 kts 336°
2026-04-22 06:18 81.56109 28.41160 35719 ft 443 kts 336°
2026-04-22 06:18 81.61731 28.23981 35725 ft 443 kts 336°
2026-04-22 06:19 81.67349 28.06562 35727 ft 443 kts 336°
2026-04-22 06:19 81.72964 27.88894 35727 ft 443 kts 335°
2026-04-22 06:20 81.78570 27.70987 35725 ft 443 kts 335°
2026-04-22 06:20 81.84174 27.52819 35729 ft 444 kts 335°
2026-04-22 06:21 81.89774 27.34389 35729 ft 444 kts 335°
2026-04-22 06:21 81.95366 27.15730 35733 ft 444 kts 335°
2026-04-22 06:22 82.00974 26.97250 35725 ft 444 kts 338°
2026-04-22 06:22 82.06767 26.81630 35733 ft 444 kts 340°
2026-04-22 06:23 82.12602 26.66803 35735 ft 445 kts 340°
2026-04-22 06:23 82.18436 26.51557 35731 ft 445 kts 340°
2026-04-22 06:24 82.27153 26.27882 35734 ft 445 kts 339°
2026-04-22 06:25 82.32959 26.11707 35733 ft 446 kts 339°
2026-04-22 06:25 82.38763 25.95275 35735 ft 446 kts 339°
2026-04-22 06:26 82.44565 25.78589 35737 ft 446 kts 338°
2026-04-22 06:26 82.50362 25.61645 35739 ft 446 kts 338°
2026-04-22 06:27 82.56155 25.44433 35735 ft 447 kts 338°
2026-04-22 06:27 82.61951 25.26923 35739 ft 447 kts 338°
2026-04-22 06:28 82.67749 25.09108 35737 ft 448 kts 338°
2026-04-22 06:28 82.73535 24.91026 35741 ft 448 kts 338°
2026-04-22 06:29 82.79327 24.72612 35739 ft 448 kts 337°
2026-04-22 06:29 82.85107 24.53919 35743 ft 449 kts 337°
2026-04-22 06:30 82.90853 24.35009 35745 ft 449 kts 337°
2026-04-22 06:30 82.96671 24.15525 35744 ft 449 kts 336°
2026-04-22 06:31 83.02402 23.95988 35743 ft 449 kts 336°
2026-04-22 06:31 83.08206 23.75841 35744 ft 450 kts 336°
2026-04-22 06:32 83.13975 23.55453 35748 ft 450 kts 336°
2026-04-22 06:32 83.19731 23.34734 35743 ft 450 kts 336°
2026-04-22 06:33 83.25482 23.13650 35746 ft 451 kts 335°
2026-04-22 06:33 83.31194 22.92316 35740 ft 451 kts 335°
2026-04-22 06:34 83.36967 22.70349 35752 ft 451 kts 335°
2026-04-22 06:34 83.42663 22.48260 35741 ft 452 kts 335°
2026-04-22 06:35 83.48396 22.25598 35755 ft 452 kts 334°
2026-04-22 06:35 83.54114 22.02560 35749 ft 452 kts 334°
2026-04-22 06:36 83.59833 21.79058 35750 ft 452 kts 334°
2026-04-22 06:36 83.65541 21.55140 35753 ft 453 kts 334°
2026-04-22 06:37 83.71248 21.30747 35754 ft 453 kts 333°
2026-04-22 06:37 83.76941 21.05918 35754 ft 454 kts 333°
2026-04-22 06:38 83.82642 20.80545 35756 ft 454 kts 333°
2026-04-22 06:38 83.88327 20.54722 35757 ft 454 kts 333°
2026-04-22 06:39 83.94001 20.28447 35757 ft 455 kts 332°
2026-04-22 06:39 83.99663 20.01560 35758 ft 455 kts 330°
2026-04-22 06:40 84.05101 19.70613 35758 ft 454 kts 327°
2026-04-22 06:40 84.10440 19.37875 35766 ft 455 kts 326°
2026-04-22 06:41 84.15775 19.04585 35761 ft 455 kts 326°
2026-04-22 06:41 84.21108 18.70895 35766 ft 456 kts 326°
2026-04-22 06:42 84.26434 18.36641 35768 ft 456 kts 326°
2026-04-22 06:42 84.31744 18.01739 35767 ft 456 kts 325°
2026-04-22 06:43 84.37002 17.66386 35774 ft 456 kts 325°
2026-04-22 06:43 84.41419 17.36045 35768 ft 457 kts 324°
2026-04-22 06:44 84.47524 16.93133 35774 ft 457 kts 324°
2026-04-22 06:44 84.51907 16.61596 35777 ft 457 kts 324°
2026-04-22 06:45 84.57957 16.17023 35788 ft 458 kts 323°
2026-04-22 06:45 84.62310 15.84180 35760 ft 458 kts 323°
2026-04-22 06:46 84.67453 15.44506 35783 ft 458 kts 323°
2026-04-22 06:46 84.72593 15.03882 35786 ft 458 kts 322°
2026-04-22 06:47 84.77716 14.62385 35776 ft 458 kts 322°
2026-04-22 06:47 84.82807 14.20096 35778 ft 458 kts 321°
2026-04-22 06:48 84.87907 13.76652 35779 ft 459 kts 321°
2026-04-22 06:48 84.92913 13.32913 35786 ft 459 kts 320°
2026-04-22 06:49 84.97924 12.87982 35789 ft 459 kts 320°
2026-04-22 06:49 85.02913 12.42061 35790 ft 460 kts 319°
2026-04-22 06:50 85.07870 11.95215 35791 ft 460 kts 319°
2026-04-22 06:50 85.12797 11.47388 35798 ft 461 kts 319°
2026-04-22 06:51 85.17703 10.98450 35797 ft 461 kts 318°
2026-04-22 06:51 85.22574 10.48500 35799 ft 461 kts 317°
2026-04-22 06:52 85.27408 9.97536 35803 ft 462 kts 317°
2026-04-22 06:52 85.32204 9.45523 35807 ft 462 kts 316°
2026-04-22 06:53 85.36968 8.92364 35810 ft 462 kts 316°
2026-04-22 06:53 85.41684 8.38188 35807 ft 462 kts 315°
2026-04-22 06:54 85.46366 7.82799 35810 ft 462 kts 315°
2026-04-22 06:54 85.51007 7.26241 35812 ft 462 kts 314°
2026-04-22 06:55 85.55602 6.68537 35812 ft 463 kts 314°
2026-04-22 06:55 85.60157 6.09542 35817 ft 463 kts 313°
2026-04-22 06:56 85.64664 5.49339 35820 ft 463 kts 312°
2026-04-22 06:56 85.69122 4.87894 35819 ft 463 kts 311°
2026-04-22 06:57 85.73532 4.25136 35822 ft 463 kts 311°
2026-04-22 06:57 85.77894 3.61019 35826 ft 463 kts 310°
2026-04-22 06:58 85.82203 2.95572 35824 ft 464 kts 310°
2026-04-22 06:58 85.86426 2.29257 35824 ft 464 kts 309°
2026-04-22 06:59 85.90630 1.60987 35832 ft 464 kts 308°
2026-04-22 06:59 85.94773 0.91552 35829 ft 464 kts 308°
2026-04-22 07:00 85.98875 0.20502 35838 ft 464 kts 308°
2026-04-22 07:00 86.03399 -0.45924 35846 ft 466 kts 316°
2026-04-22 07:01 86.08265 -1.08297 35836 ft 467 kts 316°
2026-04-22 07:01 86.13132 -1.71938 35843 ft 468 kts 316°
2026-04-22 07:02 86.17910 -2.37739 35834 ft 468 kts 314°
2026-04-22 07:02 86.22616 -3.05580 35834 ft 468 kts 314°
2026-04-22 07:03 86.27263 -3.75203 35844 ft 468 kts 313°
2026-04-22 07:03 86.31854 -4.46559 35843 ft 469 kts 312°
2026-04-22 07:04 86.36398 -5.19849 35843 ft 469 kts 311°
2026-04-22 07:04 86.40882 -5.94978 35848 ft 469 kts 311°
2026-04-22 07:05 86.45300 -6.71931 35853 ft 469 kts 310°
2026-04-22 07:05 86.49660 -7.50956 35853 ft 470 kts 309°
2026-04-22 07:06 86.53956 -8.32029 35851 ft 470 kts 308°
2026-04-22 07:06 86.58181 -9.15105 35853 ft 470 kts 308°
2026-04-22 07:07 86.62333 -10.00267 35856 ft 471 kts 307°
2026-04-22 07:07 86.66414 -10.87636 35858 ft 471 kts 306°
2026-04-22 07:08 86.70418 -11.77189 35853 ft 471 kts 305°
2026-04-22 07:08 86.74319 -12.68424 35855 ft 471 kts 304°
2026-04-22 07:09 86.78157 -13.62393 35857 ft 472 kts 303°
2026-04-22 07:09 86.81912 -14.58711 35861 ft 472 kts 302°
2026-04-22 07:10 86.85575 -15.57290 35862 ft 472 kts 301°
2026-04-22 07:10 86.89149 -16.58314 35862 ft 473 kts 300°
2026-04-22 07:11 86.92630 -17.61774 35865 ft 473 kts 299°
2026-04-22 07:11 86.96028 -18.67440 35864 ft 473 kts 298°
2026-04-22 07:12 86.99087 -19.77523 35863 ft 471 kts 289°
2026-04-22 07:12 87.00829 -20.97383 35870 ft 468 kts 278°
2026-04-22 07:13 87.01734 -22.20962 35881 ft 469 kts 275°
2026-04-22 07:13 87.02465 -23.45674 35876 ft 469 kts 274°
2026-04-22 07:14 87.03114 -24.70729 35872 ft 470 kts 274°
2026-04-22 07:14 87.03654 -25.96317 35873 ft 470 kts 272°
2026-04-22 07:15 87.04057 -27.21856 35875 ft 470 kts 271°
2026-04-22 07:15 87.04316 -28.48877 35878 ft 470 kts 270°
2026-04-22 07:16 87.04429 -29.75599 35882 ft 470 kts 268°
2026-04-22 07:16 87.04398 -31.01470 35886 ft 470 kts 267°
2026-04-22 07:17 87.04223 -32.27932 35885 ft 470 kts 266°
2026-04-22 07:17 87.03906 -33.54079 35884 ft 470 kts 265°
2026-04-22 07:18 87.03445 -34.80245 35886 ft 470 kts 263°
2026-04-22 07:18 87.02843 -36.05715 35886 ft 470 kts 262°
2026-04-22 07:19 87.02101 -37.30844 35892 ft 470 kts 261°
2026-04-22 07:19 87.01242 -38.55205 35896 ft 470 kts 259°
2026-04-22 07:20 87.00524 -39.79529 35887 ft 472 kts 266°
2026-04-22 07:20 87.00675 -41.05173 35897 ft 475 kts 274°
2026-04-22 07:21 87.01560 -42.30908 35902 ft 476 kts 276°
2026-04-22 07:21 87.02432 -43.56827 35900 ft 476 kts 275°
2026-04-22 07:22 87.03146 -44.83537 35896 ft 477 kts 273°
2026-04-22 07:22 87.03687 -46.10222 35901 ft 477 kts 272°
2026-04-22 07:23 87.04074 -47.37822 35907 ft 477 kts 270°
2026-04-22 07:23 87.04305 -48.57280 35900 ft 477 kts 269°
2026-04-22 07:24 87.04412 -49.66274 35895 ft 477 kts 268°
2026-04-22 07:24 87.04400 -50.83535 35919 ft 477 kts 267°
2026-04-22 07:25 87.04234 -52.12720 35904 ft 478 kts 266°
2026-04-22 07:25 87.03926 -53.41071 35908 ft 478 kts 264°
2026-04-22 07:26 87.03479 -54.67867 35909 ft 478 kts 263°
2026-04-22 07:26 87.02876 -55.96508 35910 ft 479 kts 262°
2026-04-22 07:27 87.02129 -57.24010 35917 ft 479 kts 261°
2026-04-22 07:27 87.01246 -58.50643 35912 ft 479 kts 260°
2026-04-22 07:28 87.00668 -59.25289 35907 ft 479 kts 259°
2026-04-22 07:28 87.00485 -59.48336 35915 ft 479 kts 260°
2026-04-22 07:29 87.00333 -59.69314 35925 ft 479 kts 261°
2026-04-22 07:29 87.00205 -59.90342 35937 ft 479 kts 262°
2026-04-22 07:30 87.00104 -60.13555 35945 ft 480 kts 265°
2026-04-22 07:30 87.00061 -60.32620 35937 ft 481 kts 267°
2026-04-22 07:31 87.00061 -60.53876 35915 ft 482 kts 270°
2026-04-22 07:31 87.00131 -60.77323 35844 ft 485 kts 274°
2026-04-22 07:32 87.00283 -61.00790 35753 ft 489 kts 278°
2026-04-22 07:32 87.00502 -61.22066 35599 ft 493 kts 282°
2026-04-22 07:33 87.00771 -61.41088 35445 ft 497 kts 286°
2026-04-22 07:33 87.00951 -61.51570 35343 ft 500 kts 289°
2026-04-22 07:33 87.01155 -61.61966 35236 ft 503 kts 291°
2026-04-22 07:34 87.01383 -61.72256 35113 ft 506 kts 294°
2026-04-22 07:34 87.01635 -61.82414 34968 ft 509 kts 296°
2026-04-22 07:34 87.01913 -61.92416 34855 ft 512 kts 299°
2026-04-22 07:34 87.02345 -62.06096 34661 ft 516 kts 303°
2026-04-22 07:35 87.02828 -62.19321 34471 ft 521 kts 307°
2026-04-22 07:35 87.03283 -62.30219 34286 ft 525 kts 311°
2026-04-22 07:35 87.03948 -62.43998 34035 ft 529 kts 316°
2026-04-22 07:35 87.04583 -62.55225 33840 ft 533 kts 321°
2026-04-22 07:36 87.05266 -62.65553 33581 ft 536 kts 325°
2026-04-22 07:36 87.06209 -62.77306 33283 ft 540 kts 332°
2026-04-22 07:36 87.07102 -62.86110 33037 ft 542 kts 338°
2026-04-22 07:36 87.08159 -62.93928 32790 ft 543 kts 345°
2026-04-22 07:37 87.10128 -63.01662 32484 ft 540 kts 356°
2026-04-22 07:37 87.13400 -63.08736 32829 ft 504 kts 348°
2026-04-22 07:37 87.15982 -63.27436 33000 ft 486 kts 330°
2026-04-22 07:38 87.16834 -63.38042 33182 ft 476 kts 324°
2026-04-22 07:38 87.17608 -63.50253 33377 ft 466 kts 317°
2026-04-22 07:38 87.18225 -63.62267 33545 ft 458 kts 312°
2026-04-22 07:38 87.18839 -63.76896 33689 ft 450 kts 306°
2026-04-22 07:39 87.19758 -64.07124 33761 ft 439 kts 294°
2026-04-22 07:39 87.20362 -64.39938 33530 ft 435 kts 282°
2026-04-22 07:40 87.20551 -64.58071 33268 ft 435 kts 276°
2026-04-22 07:40 87.20653 -64.78646 32902 ft 438 kts 270°
2026-04-22 07:40 87.20631 -65.01571 32439 ft 442 kts 263°
2026-04-22 07:40 87.20485 -65.22421 31991 ft 447 kts 256°
2026-04-22 07:41 87.20218 -65.42987 31542 ft 452 kts 249°
2026-04-22 07:41 87.19831 -65.62938 31138 ft 456 kts 242°
2026-04-22 07:41 87.19383 -65.80069 30816 ft 458 kts 236°
2026-04-22 07:41 87.18782 -65.97847 30560 ft 458 kts 229°
2026-04-22 07:42 87.18083 -66.13963 30372 ft 455 kts 222°
2026-04-22 07:42 87.17301 -66.28119 30275 ft 451 kts 215°
2026-04-22 07:42 87.15279 -66.52126 30244 ft 433 kts 199°
2026-04-22 07:43 87.13404 -66.63618 30383 ft 416 kts 192°
2026-04-22 07:43 87.11595 -66.75488 30525 ft 412 kts 203°
2026-04-22 07:43 87.10324 -66.88821 30670 ft 416 kts 209°
2026-04-22 07:43 87.09187 -67.03234 30872 ft 418 kts 212°
2026-04-22 07:44 87.08068 -67.18238 31090 ft 418 kts 212°
2026-04-22 07:44 87.06867 -67.34322 31273 ft 421 kts 213°
2026-04-22 07:44 87.04217 -67.71287 31477 ft 432 kts 214°
2026-04-22 07:45 87.02769 -67.92119 31666 ft 436 kts 215°
2026-04-22 07:45 87.01315 -68.13277 31787 ft 440 kts 215°
2026-04-22 07:45 86.99852 -68.34688 31955 ft 444 kts 216°
2026-04-22 07:45 86.98463 -68.55100 32107 ft 448 kts 216°
2026-04-22 07:46 86.96983 -68.76898 32261 ft 452 kts 216°
2026-04-22 07:46 86.95495 -68.98868 32416 ft 456 kts 216°
2026-04-22 07:46 86.93916 -69.22231 32578 ft 459 kts 217°
2026-04-22 07:46 86.92412 -69.44519 32755 ft 463 kts 217°
2026-04-22 07:47 86.90900 -69.66945 32911 ft 466 kts 217°
2026-04-22 07:47 86.89298 -69.90763 33076 ft 469 kts 217°
2026-04-22 07:47 86.87773 -70.13456 33237 ft 472 kts 217°
2026-04-22 07:47 86.86498 -70.32460 33374 ft 475 kts 217°
2026-04-22 07:48 86.85390 -70.48994 33499 ft 477 kts 218°
2026-04-22 07:48 86.84194 -70.66860 33618 ft 479 kts 218°
2026-04-22 07:49 86.82996 -70.84783 33758 ft 481 kts 218°
2026-04-22 07:49 86.81710 -71.04040 33908 ft 482 kts 218°
2026-04-22 07:50 86.80510 -71.22056 34037 ft 484 kts 218°
2026-04-22 07:50 86.79566 -71.36234 34145 ft 484 kts 218°
2026-04-22 07:51 86.78623 -71.50432 34249 ft 485 kts 218°
2026-04-22 07:51 86.77681 -71.64646 34343 ft 486 kts 218°
2026-04-22 07:52 86.76739 -71.78877 34455 ft 486 kts 219°
2026-04-22 07:52 86.75712 -71.94420 34577 ft 487 kts 219°
2026-04-22 07:53 86.74687 -72.09983 34680 ft 488 kts 219°
2026-04-22 07:53 86.73662 -72.25566 34797 ft 488 kts 219°
2026-04-22 07:54 86.72639 -72.41174 34907 ft 489 kts 219°
2026-04-22 07:54 86.71530 -72.58116 35004 ft 490 kts 219°
2026-04-22 07:55 86.70422 -72.75097 35111 ft 491 kts 219°
2026-04-22 07:55 86.69314 -72.92123 35213 ft 493 kts 220°
2026-04-22 07:56 86.68206 -73.09198 35271 ft 494 kts 220°
2026-04-22 07:56 86.66198 -73.42175 35484 ft 494 kts 228°
2026-04-22 07:56 86.64385 -73.91661 35642 ft 490 kts 247°
2026-04-22 07:57 86.63421 -74.46956 35773 ft 485 kts 256°
2026-04-22 07:57 86.62819 -75.03533 35847 ft 485 kts 259°
2026-04-22 07:57 86.61411 -76.14789 35922 ft 482 kts 250°
2026-04-22 07:58 86.58722 -77.17721 35937 ft 480 kts 239°
2026-04-22 07:58 86.55236 -78.12714 35947 ft 480 kts 234°
2026-04-22 07:59 86.51504 -79.04292 35947 ft 481 kts 234°
2026-04-22 07:59 86.47716 -79.94328 35945 ft 481 kts 233°
2026-04-22 08:00 86.43877 -80.83037 35942 ft 481 kts 233°
2026-04-22 08:00 86.39972 -81.69943 35944 ft 481 kts 232°
2026-04-22 08:01 86.35992 -82.54828 35946 ft 480 kts 231°
2026-04-22 08:01 86.31933 -83.37847 35948 ft 480 kts 230°
2026-04-22 08:02 86.27799 -84.18975 35951 ft 479 kts 230°
2026-04-22 08:02 86.23597 -84.98204 35952 ft 479 kts 229°
2026-04-22 08:03 86.19334 -85.75529 35957 ft 479 kts 228°
2026-04-22 08:03 86.15030 -86.50656 35963 ft 479 kts 227°
2026-04-22 08:04 86.10617 -87.24869 35962 ft 479 kts 226°
2026-04-22 08:04 86.06153 -87.97212 35962 ft 479 kts 226°
2026-04-22 08:05 86.01616 -88.68112 35965 ft 480 kts 225°
2026-04-22 08:05 85.97025 -89.37307 35963 ft 480 kts 224°
2026-04-22 08:06 85.92370 -90.05037 35966 ft 480 kts 224°
2026-04-22 08:06 85.87655 -90.71290 35968 ft 480 kts 223°
2026-04-22 08:07 85.82890 -91.35986 35969 ft 481 kts 222°
2026-04-22 08:07 85.78067 -91.99316 35972 ft 481 kts 222°
2026-04-22 08:08 85.73200 -92.61121 35970 ft 481 kts 221°
2026-04-22 08:08 85.68286 -93.21502 35971 ft 481 kts 220°
2026-04-22 08:09 85.63313 -93.80681 35973 ft 481 kts 220°
2026-04-22 08:09 85.58303 -94.38412 35976 ft 481 kts 219°
2026-04-22 08:10 85.53249 -94.94863 35976 ft 481 kts 219°
2026-04-22 08:10 85.48155 -95.50021 35977 ft 480 kts 218°
2026-04-22 08:11 85.43020 -96.03946 35979 ft 480 kts 218°
2026-04-22 08:11 85.37841 -96.56724 35982 ft 480 kts 217°
2026-04-22 08:12 85.32630 -97.08271 35980 ft 480 kts 217°
2026-04-22 08:12 85.27381 -97.58690 35988 ft 480 kts 216°
2026-04-22 08:13 85.22100 -98.07975 35986 ft 480 kts 216°
2026-04-22 08:13 85.16819 -98.55874 35989 ft 480 kts 215°
2026-04-22 08:14 85.11467 -99.03079 35987 ft 480 kts 215°
2026-04-22 08:14 85.06086 -99.49329 35984 ft 480 kts 214°
2026-04-22 08:15 85.00662 -99.94313 35991 ft 480 kts 212°
2026-04-22 08:15 84.94820 -100.30276 35998 ft 477 kts 203°
2026-04-22 08:16 84.88831 -100.62742 36000 ft 478 kts 204°
2026-04-22 08:16 84.82865 -100.95724 36003 ft 478 kts 205°
2026-04-22 08:17 84.76889 -101.28134 35999 ft 479 kts 204°
2026-04-22 08:17 84.70900 -101.59686 36004 ft 479 kts 204°
2026-04-22 08:18 84.64883 -101.90496 36006 ft 479 kts 203°
2026-04-22 08:18 84.58849 -102.20599 35995 ft 478 kts 203°
2026-04-22 08:19 84.52813 -102.49978 36012 ft 478 kts 203°
2026-04-22 08:19 84.46761 -102.78742 36021 ft 478 kts 202°
2026-04-22 08:20 84.40690 -103.06906 36024 ft 478 kts 202°
2026-04-22 08:20 84.34614 -103.34434 36013 ft 478 kts 202°
2026-04-22 08:21 84.28568 -103.61188 36020 ft 478 kts 201°
2026-04-22 08:21 84.22470 -103.87554 36020 ft 478 kts 201°
2026-04-22 08:22 84.17349 -104.09232 36022 ft 478 kts 201°
2026-04-22 08:22 84.11221 -104.34635 36024 ft 478 kts 201°
2026-04-22 08:23 84.05123 -104.59345 36029 ft 478 kts 201°
2026-04-22 08:23 83.98968 -104.83739 36029 ft 479 kts 200°
2026-04-22 08:24 83.92803 -105.07641 36029 ft 479 kts 200°
2026-04-22 08:24 83.86624 -105.31078 36031 ft 479 kts 200°
2026-04-22 08:25 83.80432 -105.54056 36035 ft 479 kts 200°
2026-04-22 08:25 83.74238 -105.76555 36037 ft 479 kts 199°
2026-04-22 08:26 83.68029 -105.98635 36040 ft 479 kts 199°
2026-04-22 08:26 83.61815 -106.20270 36042 ft 479 kts 199°
2026-04-22 08:27 83.55589 -106.41501 36044 ft 478 kts 199°
2026-04-22 08:27 83.49360 -106.62308 36050 ft 478 kts 199°
2026-04-22 08:28 83.43132 -106.82694 36045 ft 478 kts 198°
2026-04-22 08:28 83.36890 -107.02716 36047 ft 478 kts 198°
2026-04-22 08:29 83.30652 -107.22324 36054 ft 478 kts 198°
2026-04-22 08:29 83.24395 -107.41611 36052 ft 478 kts 198°
2026-04-22 08:30 83.18140 -107.60518 36056 ft 478 kts 198°
2026-04-22 08:30 83.11870 -107.79104 36058 ft 478 kts 197°
2026-04-22 08:31 83.05586 -107.97375 36061 ft 478 kts 197°
2026-04-22 08:32 82.96157 -108.24147 36064 ft 478 kts 197°
2026-04-22 08:32 82.89859 -108.41611 36066 ft 478 kts 197°
2026-04-22 08:33 82.83588 -108.58679 36070 ft 478 kts 197°
2026-04-22 08:33 82.77278 -108.75542 36067 ft 478 kts 196°
2026-04-22 08:34 82.70962 -108.92111 36071 ft 478 kts 196°
2026-04-22 08:34 82.64637 -109.08409 36074 ft 478 kts 196°
2026-04-22 08:35 82.58314 -109.24404 36079 ft 478 kts 196°
2026-04-22 08:35 82.51979 -109.40147 36079 ft 478 kts 196°
2026-04-22 08:36 82.45647 -109.55607 36070 ft 478 kts 195°
2026-04-22 08:36 82.39312 -109.70809 36085 ft 477 kts 195°
2026-04-22 08:37 82.32970 -109.85763 36092 ft 477 kts 195°
2026-04-22 08:37 82.26627 -110.00464 36075 ft 477 kts 195°
2026-04-22 08:38 82.20287 -110.14908 36081 ft 477 kts 195°
2026-04-22 08:38 82.13941 -110.29125 36086 ft 477 kts 195°
2026-04-22 08:39 82.07592 -110.43111 36084 ft 477 kts 195°
2026-04-22 08:39 82.01238 -110.56877 36087 ft 477 kts 195°
2026-04-22 08:40 81.94886 -110.70413 36093 ft 477 kts 194°
2026-04-22 08:40 81.88521 -110.83757 36090 ft 477 kts 194°
2026-04-22 08:41 81.82151 -110.96895 36093 ft 477 kts 194°
2026-04-22 08:41 81.75780 -111.09825 36096 ft 477 kts 194°
2026-04-22 08:42 81.69444 -111.22482 36095 ft 477 kts 194°
2026-04-22 08:42 81.63065 -111.35024 36095 ft 477 kts 194°
2026-04-22 08:43 81.56641 -111.47456 36101 ft 477 kts 194°
2026-04-22 08:43 81.50294 -111.59548 36097 ft 476 kts 194°
2026-04-22 08:44 81.43909 -111.71528 36098 ft 476 kts 193°
2026-04-22 08:44 81.37525 -111.83321 36101 ft 476 kts 193°
2026-04-22 08:45 81.31132 -111.94952 36101 ft 476 kts 193°
2026-04-22 08:45 81.24732 -112.06421 36096 ft 476 kts 193°
2026-04-22 08:46 81.18332 -112.17720 36098 ft 476 kts 193°
2026-04-22 08:46 81.11927 -112.28860 36100 ft 477 kts 193°
2026-04-22 08:47 81.05516 -112.39845 36098 ft 476 kts 193°
2026-04-22 08:47 80.99107 -112.50667 36104 ft 476 kts 193°
2026-04-22 08:48 80.92690 -112.61346 36101 ft 476 kts 193°
2026-04-22 08:48 80.86278 -112.71863 36101 ft 476 kts 192°
2026-04-22 08:49 80.79855 -112.82247 36102 ft 476 kts 192°
2026-04-22 08:49 80.73439 -112.92472 36101 ft 476 kts 192°
2026-04-22 08:50 80.67015 -113.02568 36102 ft 476 kts 192°
2026-04-22 08:50 80.60596 -113.12513 36103 ft 476 kts 192°
2026-04-22 08:51 80.54174 -113.22324 36099 ft 476 kts 192°
2026-04-22 08:51 80.47770 -113.31973 36105 ft 476 kts 192°
2026-04-22 08:52 80.41337 -113.41535 36104 ft 476 kts 192°
2026-04-22 08:52 80.34943 -113.50909 36104 ft 476 kts 192°
2026-04-22 08:53 80.28469 -113.60274 36100 ft 476 kts 192°
2026-04-22 08:53 80.22025 -113.69469 36102 ft 476 kts 192°
2026-04-22 08:54 80.15581 -113.78543 36101 ft 476 kts 192°
2026-04-22 08:54 80.09145 -113.87489 36101 ft 476 kts 192°
2026-04-22 08:55 80.02697 -113.96340 36100 ft 476 kts 192°
2026-04-22 08:55 79.96360 -114.07347 36117 ft 481 kts 200°
2026-04-22 08:55 79.93206 -114.14248 36289 ft 487 kts 199°
2026-04-22 08:56 79.90081 -114.20925 36637 ft 489 kts 199°
2026-04-22 08:56 79.86894 -114.27609 37105 ft 488 kts 199°
2026-04-22 08:56 79.83719 -114.34182 37590 ft 487 kts 199°
2026-04-22 08:56 79.80533 -114.40713 38019 ft 487 kts 198°
2026-04-22 08:57 79.77332 -114.47222 38127 ft 492 kts 198°
2026-04-22 08:57 79.70883 -114.60214 38096 ft 492 kts 198°
2026-04-22 08:58 79.64698 -114.72534 38092 ft 486 kts 198°
2026-04-22 08:58 79.58360 -114.85006 38099 ft 484 kts 198°
2026-04-22 08:59 79.52014 -114.97331 38099 ft 484 kts 198°
2026-04-22 08:59 79.45660 -115.09518 38101 ft 484 kts 198°
2026-04-22 09:00 79.39287 -115.21585 38099 ft 485 kts 198°
2026-04-22 09:00 79.33040 -115.33267 38100 ft 487 kts 198°
2026-04-22 09:01 79.26616 -115.45134 38098 ft 488 kts 198°
2026-04-22 09:01 79.20182 -115.56873 38095 ft 489 kts 198°
2026-04-22 09:02 79.13728 -115.68499 38091 ft 490 kts 198°
2026-04-22 09:02 79.07884 -115.78905 38090 ft 491 kts 198°
2026-04-22 09:03 79.01535 -115.90076 38092 ft 491 kts 197°
2026-04-22 09:03 78.95051 -116.01349 38093 ft 491 kts 197°
2026-04-22 09:04 78.88569 -116.12482 38086 ft 490 kts 197°
2026-04-22 09:04 78.82094 -116.23469 38095 ft 490 kts 197°
2026-04-22 09:05 78.75715 -116.34160 38095 ft 490 kts 197°
2026-04-22 09:05 78.69236 -116.44893 38092 ft 489 kts 197°
2026-04-22 09:06 78.62755 -116.55504 38095 ft 489 kts 197°
2026-04-22 09:06 78.56274 -116.65989 38093 ft 489 kts 197°
2026-04-22 09:07 78.49793 -116.76351 38090 ft 489 kts 197°
2026-04-22 09:07 78.43358 -116.86520 38087 ft 489 kts 197°
2026-04-22 09:08 78.36868 -116.96659 38092 ft 488 kts 197°
2026-04-22 09:08 78.30384 -117.06674 38089 ft 488 kts 197°
2026-04-22 09:09 78.23893 -117.16584 38089 ft 488 kts 197°
2026-04-22 09:09 78.17399 -117.26385 38089 ft 489 kts 197°
2026-04-22 09:10 78.12107 -117.34291 38091 ft 489 kts 197°
2026-04-22 09:10 78.05602 -117.43910 38089 ft 489 kts 197°
2026-04-22 09:11 77.99101 -117.53416 38087 ft 488 kts 197°
2026-04-22 09:11 77.92593 -117.62826 38086 ft 488 kts 197°
2026-04-22 09:12 77.86085 -117.72133 38092 ft 488 kts 196°
2026-04-22 09:12 77.79658 -117.81223 38088 ft 489 kts 196°
2026-04-22 09:13 77.73137 -117.90346 38092 ft 489 kts 196°
2026-04-22 09:13 77.66612 -117.99375 38090 ft 489 kts 196°
2026-04-22 09:14 77.60084 -118.08313 38088 ft 489 kts 196°
2026-04-22 09:14 77.53542 -118.17171 38093 ft 489 kts 196°
2026-04-22 09:15 77.47209 -118.25656 38091 ft 489 kts 196°
2026-04-22 09:15 77.40669 -118.34326 38092 ft 489 kts 196°
2026-04-22 09:16 77.34125 -118.42911 38091 ft 489 kts 196°
2026-04-22 09:16 77.27580 -118.51407 38089 ft 489 kts 196°
2026-04-22 09:17 77.21109 -118.59719 38087 ft 489 kts 196°
2026-04-22 09:17 77.14582 -118.68016 38092 ft 488 kts 196°
2026-04-22 09:18 77.08042 -118.76244 38087 ft 488 kts 196°
2026-04-22 09:18 77.01508 -118.84378 38088 ft 487 kts 195°
2026-04-22 09:19 76.95015 -118.92380 38095 ft 487 kts 195°
2026-04-22 09:19 76.88486 -119.00346 38092 ft 487 kts 195°
2026-04-22 09:20 76.82003 -119.08175 38092 ft 487 kts 195°
2026-04-22 09:20 76.75473 -119.15981 38091 ft 486 kts 195°
2026-04-22 09:21 76.68941 -119.23713 38091 ft 486 kts 195°
2026-04-22 09:21 76.62409 -119.31368 38095 ft 486 kts 195°
2026-04-22 09:22 76.55873 -119.38951 38094 ft 486 kts 195°
2026-04-22 09:22 76.49333 -119.46465 38092 ft 487 kts 195°
2026-04-22 09:23 76.42788 -119.53909 38094 ft 487 kts 195°
2026-04-22 09:23 76.36244 -119.61281 38094 ft 487 kts 195°
2026-04-22 09:24 76.29701 -119.68581 38094 ft 487 kts 195°
2026-04-22 09:24 76.23148 -119.75820 38093 ft 487 kts 195°
2026-04-22 09:25 76.16596 -119.82990 38095 ft 486 kts 195°
2026-04-22 09:25 76.10050 -119.90084 38094 ft 486 kts 195°
2026-04-22 09:26 76.03499 -119.97116 38097 ft 486 kts 195°
2026-04-22 09:26 75.96946 -120.04084 38103 ft 486 kts 195°
2026-04-22 09:27 75.90391 -120.10989 38096 ft 486 kts 195°
2026-04-22 09:27 75.84066 -120.17589 38098 ft 486 kts 195°
2026-04-22 09:28 75.77507 -120.24370 38102 ft 486 kts 195°
2026-04-22 09:28 75.71006 -120.31031 38100 ft 485 kts 195°
2026-04-22 09:29 75.64457 -120.37680 38102 ft 485 kts 195°
2026-04-22 09:29 75.57908 -120.44266 38103 ft 485 kts 195°
2026-04-22 09:30 75.51360 -120.50792 38104 ft 485 kts 195°
2026-04-22 09:30 75.44814 -120.57257 38108 ft 485 kts 195°
2026-04-22 09:31 75.38330 -120.63602 38103 ft 485 kts 195°
2026-04-22 09:31 75.31783 -120.69954 38110 ft 484 kts 194°
2026-04-22 09:32 75.25239 -120.76245 38106 ft 484 kts 194°
2026-04-22 09:32 75.18686 -120.82489 38109 ft 484 kts 194°
2026-04-22 09:33 75.12142 -120.88671 38112 ft 484 kts 194°
2026-04-22 09:33 75.05593 -120.94806 38109 ft 484 kts 194°
2026-04-22 09:34 74.99031 -121.00291 38099 ft 485 kts 189°
2026-04-22 09:34 74.92302 -121.02217 38128 ft 485 kts 184°
2026-04-22 09:35 74.82195 -121.04621 38118 ft 485 kts 185°
2026-04-22 09:35 74.75471 -121.06334 38118 ft 485 kts 185°
2026-04-22 09:36 74.68742 -121.08063 38125 ft 485 kts 185°
2026-04-22 09:36 74.62054 -121.09765 38126 ft 485 kts 185°
2026-04-22 09:37 74.55327 -121.11456 38122 ft 485 kts 185°
2026-04-22 09:37 74.48594 -121.13133 38124 ft 485 kts 185°
2026-04-22 09:38 74.41863 -121.14795 38116 ft 485 kts 185°
2026-04-22 09:38 74.35135 -121.16442 38121 ft 485 kts 185°
2026-04-22 09:39 74.28405 -121.18076 38129 ft 484 kts 185°
2026-04-22 09:39 74.21779 -121.19672 38136 ft 484 kts 185°
2026-04-22 09:40 74.15052 -121.21278 38133 ft 484 kts 185°
2026-04-22 09:40 74.08332 -121.22870 38131 ft 484 kts 185°
2026-04-22 09:41 74.01611 -121.24448 38137 ft 484 kts 185°
2026-04-22 09:41 73.94892 -121.26014 38143 ft 484 kts 185°
2026-04-22 09:42 73.88170 -121.27568 38141 ft 484 kts 185°
2026-04-22 09:42 73.81455 -121.29107 38141 ft 484 kts 185°
2026-04-22 09:43 73.74874 -121.30602 38151 ft 484 kts 185°
2026-04-22 09:43 73.68168 -121.32116 38146 ft 484 kts 185°
2026-04-22 09:44 73.61449 -121.33620 38152 ft 484 kts 186°
2026-04-22 09:44 73.54728 -121.35111 38155 ft 484 kts 186°
2026-04-22 09:45 73.48054 -121.36581 38156 ft 484 kts 186°
2026-04-22 09:45 73.41337 -121.38049 38155 ft 484 kts 186°
2026-04-22 09:46 73.34759 -121.39475 38158 ft 484 kts 186°
2026-04-22 09:46 73.28044 -121.40919 38159 ft 483 kts 186°
2026-04-22 09:47 73.21331 -121.42352 38157 ft 483 kts 186°
2026-04-22 09:47 73.14713 -121.43754 38158 ft 483 kts 186°
2026-04-22 09:48 73.07999 -121.45164 38164 ft 483 kts 186°
2026-04-22 09:48 73.01292 -121.46564 38165 ft 483 kts 186°
2026-04-22 09:49 72.94612 -121.47946 38170 ft 483 kts 186°
2026-04-22 09:49 72.87903 -121.49325 38168 ft 483 kts 186°
2026-04-22 09:50 72.81198 -121.50692 38173 ft 483 kts 186°
2026-04-22 09:50 72.74674 -121.52012 38173 ft 483 kts 186°
2026-04-22 09:51 72.67831 -121.53386 38180 ft 483 kts 186°
2026-04-22 09:51 72.61123 -121.54723 38181 ft 483 kts 186°
2026-04-22 09:52 72.54417 -121.56049 38180 ft 483 kts 186°
2026-04-22 09:52 72.47707 -121.57367 38182 ft 483 kts 186°
2026-04-22 09:53 72.40998 -121.58674 38182 ft 483 kts 186°
2026-04-22 09:53 72.34296 -121.59970 38179 ft 483 kts 186°
2026-04-22 09:54 72.27582 -121.61259 38182 ft 483 kts 186°
2026-04-22 09:54 72.20869 -121.62539 38188 ft 483 kts 186°
2026-04-22 09:55 72.14161 -121.63809 38188 ft 483 kts 186°
2026-04-22 09:55 72.08572 -121.64860 38191 ft 483 kts 186°
2026-04-22 09:56 72.01859 -121.66113 38189 ft 484 kts 186°
2026-04-22 09:56 71.94047 -121.67560 38191 ft 484 kts 186°
2026-04-22 09:57 71.88411 -121.68597 38189 ft 484 kts 186°
2026-04-22 09:57 71.81691 -121.69825 38191 ft 484 kts 186°
2026-04-22 09:58 71.74965 -121.71045 38189 ft 484 kts 186°
2026-04-22 09:58 71.68241 -121.72256 38186 ft 484 kts 186°
2026-04-22 09:59 71.61559 -121.73451 38190 ft 484 kts 186°
2026-04-22 09:59 71.54834 -121.74645 38187 ft 484 kts 186°
2026-04-22 10:00 71.48068 -121.75839 38186 ft 484 kts 186°
2026-04-22 10:00 71.41389 -121.77008 38189 ft 484 kts 186°
2026-04-22 10:01 71.34672 -121.78176 38187 ft 484 kts 186°
2026-04-22 10:01 71.27948 -121.79338 38186 ft 484 kts 186°
2026-04-22 10:02 71.21226 -121.80490 38185 ft 484 kts 186°
2026-04-22 10:02 71.14515 -121.81634 38187 ft 483 kts 186°
2026-04-22 10:03 71.07801 -121.82769 38193 ft 483 kts 186°
2026-04-22 10:03 71.01078 -121.83898 38191 ft 483 kts 186°
2026-04-22 10:04 70.94367 -121.85019 38188 ft 483 kts 186°
2026-04-22 10:04 70.87655 -121.86131 38191 ft 483 kts 186°
2026-04-22 10:05 70.80938 -121.87237 38201 ft 483 kts 186°
2026-04-22 10:05 70.74228 -121.88334 38199 ft 483 kts 186°
2026-04-22 10:06 70.67513 -121.89425 38199 ft 483 kts 186°
2026-04-22 10:06 70.60800 -121.90508 38205 ft 483 kts 186°
2026-04-22 10:07 70.54089 -121.91583 38208 ft 483 kts 186°
2026-04-22 10:07 70.47385 -121.92650 38208 ft 483 kts 186°
2026-04-22 10:08 70.40680 -121.93710 38206 ft 482 kts 186°
2026-04-22 10:08 70.33981 -121.94764 38209 ft 482 kts 186°
2026-04-22 10:09 70.27282 -121.95809 38221 ft 482 kts 186°
2026-04-22 10:09 70.20583 -121.96848 38221 ft 482 kts 186°
2026-04-22 10:10 70.14085 -121.97850 38219 ft 482 kts 186°
2026-04-22 10:10 70.07392 -121.98875 38227 ft 482 kts 186°
2026-04-22 10:11 70.00697 -121.99894 38223 ft 482 kts 186°
2026-04-22 10:11 69.94017 -122.01249 38221 ft 481 kts 187°
2026-04-22 10:12 69.87425 -122.02963 38219 ft 480 kts 188°
2026-04-22 10:12 69.80762 -122.04688 38212 ft 480 kts 188°
2026-04-22 10:13 69.74105 -122.06336 38208 ft 481 kts 187°
2026-04-22 10:13 69.67441 -122.07942 38203 ft 480 kts 187°
2026-04-22 10:14 69.60781 -122.09529 38198 ft 480 kts 187°
2026-04-22 10:14 69.54120 -122.11110 38202 ft 480 kts 187°
2026-04-22 10:15 69.47461 -122.12683 38191 ft 480 kts 187°
2026-04-22 10:15 69.40806 -122.14246 38189 ft 480 kts 188°
2026-04-22 10:16 69.34150 -122.15800 38184 ft 480 kts 187°
2026-04-22 10:16 69.27491 -122.17345 38179 ft 480 kts 187°
2026-04-22 10:17 69.20877 -122.18870 38179 ft 480 kts 187°
2026-04-22 10:17 69.14222 -122.20395 38181 ft 480 kts 187°
2026-04-22 10:18 69.07592 -122.21903 38175 ft 480 kts 187°
2026-04-22 10:18 69.00936 -122.23410 38179 ft 479 kts 187°
2026-04-22 10:19 68.94285 -122.24906 38176 ft 479 kts 188°
2026-04-22 10:19 68.87642 -122.26392 38180 ft 479 kts 188°
2026-04-22 10:20 68.81061 -122.27856 38181 ft 479 kts 188°
2026-04-22 10:20 68.74373 -122.29333 38177 ft 479 kts 188°
2026-04-22 10:21 68.67720 -122.30794 38179 ft 479 kts 188°
2026-04-22 10:21 68.61116 -122.32236 38181 ft 479 kts 188°
2026-04-22 10:22 68.54424 -122.33689 38183 ft 479 kts 188°
2026-04-22 10:22 68.47780 -122.35122 38185 ft 479 kts 188°
2026-04-22 10:23 68.41141 -122.36545 38191 ft 479 kts 188°
2026-04-22 10:23 68.34546 -122.37951 38188 ft 479 kts 188°
2026-04-22 10:24 68.27909 -122.39358 38190 ft 478 kts 188°
2026-04-22 10:24 68.21274 -122.40757 38195 ft 478 kts 188°
2026-04-22 10:25 68.14633 -122.42149 38193 ft 478 kts 188°
2026-04-22 10:25 68.08018 -122.43527 38202 ft 478 kts 187°
2026-04-22 10:26 68.01366 -122.44904 38199 ft 478 kts 188°
2026-04-22 10:26 67.94727 -122.46272 38200 ft 478 kts 187°
2026-04-22 10:27 67.88100 -122.47629 38205 ft 478 kts 188°
2026-04-22 10:27 67.81466 -122.48980 38206 ft 478 kts 187°
2026-04-22 10:28 67.74841 -122.50321 38208 ft 478 kts 187°
2026-04-22 10:28 67.68203 -122.51657 38208 ft 478 kts 187°
2026-04-22 10:29 67.61574 -122.52983 38199 ft 478 kts 187°
2026-04-22 10:29 67.54947 -122.54302 38196 ft 478 kts 187°
2026-04-22 10:30 67.48402 -122.55598 38197 ft 478 kts 187°
2026-04-22 10:30 67.41771 -122.56903 38202 ft 478 kts 187°
2026-04-22 10:31 67.35146 -122.58200 38201 ft 478 kts 187°
2026-04-22 10:31 67.28559 -122.59482 38193 ft 477 kts 187°
2026-04-22 10:32 67.22007 -122.60750 38195 ft 477 kts 187°
2026-04-22 10:32 67.15384 -122.62025 38193 ft 477 kts 187°
2026-04-22 10:33 67.08760 -122.63294 38191 ft 477 kts 187°
2026-04-22 10:33 67.02138 -122.64555 38189 ft 477 kts 187°
2026-04-22 10:34 66.95511 -122.65809 38189 ft 477 kts 187°
2026-04-22 10:34 66.88879 -122.67058 38190 ft 477 kts 187°
2026-04-22 10:35 66.82271 -122.68296 38186 ft 477 kts 187°
2026-04-22 10:35 66.75650 -122.69529 38191 ft 477 kts 187°
2026-04-22 10:36 66.69040 -122.70755 38188 ft 477 kts 187°
2026-04-22 10:36 66.62421 -122.71975 38189 ft 476 kts 187°
2026-04-22 10:37 66.52507 -122.73791 38188 ft 476 kts 187°
2026-04-22 10:38 66.45941 -122.74984 38193 ft 476 kts 187°
2026-04-22 10:38 66.39336 -122.76179 38187 ft 476 kts 187°
2026-04-22 10:39 66.33459 -122.77237 38188 ft 476 kts 187°
2026-04-22 10:39 66.24907 -122.78768 38188 ft 476 kts 187°
2026-04-22 10:40 66.02763 -122.82684 38188 ft 476 kts 187°
2026-04-22 10:40 65.72007 -122.88011 38183 ft 476 kts 187°
2026-04-22 10:41 65.50032 -122.91739 38181 ft 476 kts 187°
2026-04-22 10:41 65.23895 -122.96093 38167 ft 476 kts 187°
2026-04-22 10:42 64.97585 -123.00446 38172 ft 478 kts 188°
2026-04-22 10:42 64.84128 -123.03691 39013 ft 494 kts 189°
2026-04-22 10:42 64.70290 -123.06979 39194 ft 504 kts 188°
2026-04-22 10:42 64.56444 -123.10152 39120 ft 492 kts 188°
2026-04-22 10:43 64.43354 -123.13137 39018 ft 474 kts 188°
2026-04-22 10:43 64.17302 -123.19017 39178 ft 481 kts 188°
2026-04-22 10:43 64.04040 -123.21963 39200 ft 492 kts 188°
2026-04-22 10:44 63.90480 -123.24941 39100 ft 495 kts 188°
2026-04-22 10:44 63.76957 -123.27879 39123 ft 482 kts 188°
2026-04-22 10:44 63.63580 -123.30763 39074 ft 473 kts 188°
2026-04-22 10:45 63.37274 -123.36367 39102 ft 483 kts 188°
2026-04-22 10:45 63.10901 -123.41868 39108 ft 488 kts 188°
2026-04-22 10:46 62.88168 -123.46529 38970 ft 474 kts 188°
2026-04-22 10:46 62.76459 -123.48904 39087 ft 465 kts 188°
2026-04-22 10:46 62.63956 -123.51404 39153 ft 469 kts 188°
2026-04-22 10:47 62.41576 -123.55878 39046 ft 484 kts 188°
2026-04-22 10:47 62.19376 -123.60212 39026 ft 484 kts 188°
2026-04-22 10:48 61.94091 -123.65094 39006 ft 472 kts 188°
2026-04-22 10:48 61.68887 -123.69881 39107 ft 473 kts 188°
2026-04-22 10:49 61.41969 -123.74899 39024 ft 486 kts 188°
2026-04-22 10:49 61.16252 -123.79606 39004 ft 470 kts 188°
2026-04-22 10:50 60.91258 -123.84123 39053 ft 474 kts 188°
2026-04-22 10:50 60.65521 -123.88691 39084 ft 486 kts 188°
2026-04-22 10:51 60.39580 -123.93217 39024 ft 470 kts 188°
2026-04-22 10:51 60.15560 -123.97355 39051 ft 471 kts 188°
2026-04-22 10:52 59.89581 -124.00164 39068 ft 488 kts 182°
2026-04-22 10:52 59.63686 -123.99987 39032 ft 478 kts 183°
2026-04-22 10:53 59.37096 -124.00006 39063 ft 505 kts 183°
2026-04-22 10:53 59.23088 -124.00002 39027 ft 516 kts 182°
2026-04-22 10:53 59.09186 -123.99997 39011 ft 518 kts 182°
2026-04-22 10:54 58.82176 -123.99994 38978 ft 509 kts 182°
2026-04-22 10:54 58.55093 -123.99997 39035 ft 499 kts 182°
2026-04-22 10:55 58.28940 -124.00000 39066 ft 508 kts 182°
2026-04-22 10:55 58.01323 -123.99997 38997 ft 512 kts 182°
2026-04-22 10:56 57.73885 -123.99995 39059 ft 500 kts 183°
2026-04-22 10:56 57.46579 -124.00000 39074 ft 499 kts 183°
2026-04-22 10:57 57.06763 -123.99997 39111 ft 512 kts 183°
2026-04-22 10:57 56.49786 -123.99990 39021 ft 508 kts 183°
2026-04-22 10:58 55.94544 -123.99996 38985 ft 498 kts 183°
2026-04-22 10:58 55.39253 -123.99999 39026 ft 496 kts 183°
2026-04-22 10:59 54.84227 -123.98957 39041 ft 497 kts 180°
2026-04-22 10:59 54.30431 -123.94095 38982 ft 495 kts 181°
2026-04-22 11:00 53.78856 -123.89829 38981 ft 493 kts 181°
2026-04-22 11:00 53.24222 -123.85429 39018 ft 492 kts 180°
2026-04-22 11:01 52.77677 -123.81772 39026 ft 488 kts 181°
2026-04-22 11:01 52.25710 -123.77770 39020 ft 484 kts 181°
2026-04-22 11:02 51.76680 -123.74099 38915 ft 483 kts 180°
2026-04-22 11:02 51.25184 -123.70315 38908 ft 483 kts 180°
2026-04-22 11:03 50.77812 -123.66882 38889 ft 485 kts 180°
2026-04-22 11:03 50.27595 -123.63280 38993 ft 484 kts 179°
2026-04-22 11:04 49.99271 -123.62589 38974 ft 482 kts 194°
2026-04-22 11:04 49.92995 -123.66157 38907 ft 481 kts 205°
2026-04-22 11:05 49.81492 -123.71934 38874 ft 487 kts 187°
2026-04-22 11:05 49.67867 -123.69858 38909 ft 491 kts 171°
2026-04-22 11:05 49.54531 -123.66301 38896 ft 492 kts 172°
2026-04-22 11:06 49.27440 -123.59630 38881 ft 493 kts 173°
2026-04-22 11:06 49.00254 -123.54069 37151 ft 478 kts 173°
2026-04-22 11:06 48.87327 -123.51400 34194 ft 461 kts 173°
2026-04-22 11:07 48.74673 -123.48792 29980 ft 462 kts 171°
2026-04-22 11:07 48.64000 -123.40357 26327 ft 451 kts 148°
2026-04-22 11:07 48.54211 -123.31159 23324 ft 441 kts 149°
2026-04-22 11:07 48.43835 -123.21565 20155 ft 429 kts 147°
2026-04-22 11:08 48.34285 -123.12760 18476 ft 392 kts 147°
2026-04-22 11:08 48.25126 -123.04357 16526 ft 371 kts 147°
2026-04-22 11:08 48.16541 -122.96509 14680 ft 353 kts 147°
2026-04-22 11:08 48.09525 -122.90114 13136 ft 341 kts 148°
2026-04-22 11:09 48.07505 -122.88279 12662 ft 338 kts 148°
2026-04-22 11:09 48.05508 -122.86466 12321 ft 332 kts 148°
2026-04-22 11:09 48.03696 -122.84507 12103 ft 316 kts 132°
2026-04-22 11:09 48.02445 -122.81864 11748 ft 311 kts 119°
2026-04-22 11:10 48.01305 -122.79081 11370 ft 318 kts 120°
2026-04-22 11:10 48.00116 -122.76283 11197 ft 317 kts 121°
2026-04-22 11:10 47.98934 -122.73541 11037 ft 309 kts 121°
2026-04-22 11:10 47.98228 -122.71740 10852 ft 300 kts 114°
2026-04-22 11:11 47.97466 -122.68884 10573 ft 293 kts 107°
2026-04-22 11:11 47.96829 -122.66012 10304 ft 293 kts 105°
2026-04-22 11:11 47.96194 -122.63132 10003 ft 289 kts 106°
2026-04-22 11:11 47.95553 -122.60316 9701 ft 284 kts 107°
2026-04-22 11:12 47.94906 -122.57561 9383 ft 279 kts 107°
2026-04-22 11:12 47.94259 -122.54852 9091 ft 276 kts 107°
2026-04-22 11:12 47.93609 -122.52147 8824 ft 277 kts 107°
2026-04-22 11:12 47.92946 -122.49461 8543 ft 274 kts 112°
2026-04-22 11:13 47.91817 -122.47238 8256 ft 270 kts 142°
2026-04-22 11:13 47.90159 -122.46010 7991 ft 264 kts 163°
2026-04-22 11:13 47.88391 -122.45236 7785 ft 265 kts 164°
2026-04-22 11:13 47.86651 -122.44482 7724 ft 254 kts 164°
2026-04-22 11:14 47.84999 -122.43765 7598 ft 242 kts 164°
2026-04-22 11:14 47.83382 -122.43058 7068 ft 240 kts 165°
2026-04-22 11:14 47.81833 -122.42376 6803 ft 227 kts 165°
2026-04-22 11:14 47.80393 -122.41740 6533 ft 222 kts 165°
2026-04-22 11:15 47.78930 -122.41095 6294 ft 217 kts 165°
2026-04-22 11:15 47.77494 -122.40461 6065 ft 214 kts 165°
2026-04-22 11:15 47.76107 -122.39723 5828 ft 213 kts 157°
2026-04-22 11:15 47.74775 -122.38770 5616 ft 213 kts 155°
2026-04-22 11:16 47.73458 -122.37800 5412 ft 212 kts 155°
2026-04-22 11:16 47.72162 -122.36854 5199 ft 212 kts 155°
2026-04-22 11:16 47.71038 -122.36043 5079 ft 206 kts 155°
2026-04-22 11:16 47.69820 -122.35169 4991 ft 202 kts 155°
2026-04-22 11:17 47.68613 -122.34309 4665 ft 209 kts 155°
2026-04-22 11:17 47.67340 -122.33403 4398 ft 203 kts 155°
2026-04-22 11:17 47.66098 -122.32521 4177 ft 196 kts 155°
2026-04-22 11:17 47.64826 -122.31865 3935 ft 195 kts 172°
2026-04-22 11:18 47.63483 -122.31705 3700 ft 198 kts 177°
2026-04-22 11:18 47.62157 -122.31657 3474 ft 201 kts 179°
2026-04-22 11:18 47.60787 -122.31658 3199 ft 193 kts 180°
2026-04-22 11:18 47.59564 -122.31669 2946 ft 187 kts 180°
2026-04-22 11:19 47.58255 -122.31681 2708 ft 191 kts 181°
2026-04-22 11:19 47.56991 -122.31692 2473 ft 191 kts 180°
2026-04-22 11:19 47.55668 -122.31704 2210 ft 186 kts 181°
2026-04-22 11:19 47.54413 -122.31715 1945 ft 175 kts 181°
2026-04-22 11:20 47.53288 -122.31724 1857 ft 162 kts 181°
2026-04-22 11:20 47.52127 -122.31735 1651 ft 166 kts 182°
2026-04-22 11:20 47.51189 -122.31743 1423 ft 155 kts 182°
2026-04-22 11:20 47.50407 -122.31750 1269 ft 144 kts 182°
2026-04-22 11:21 47.49627 -122.31757 1132 ft 138 kts 182°
2026-04-22 11:21 47.49037 -122.31762 1035 ft 137 kts 182°
2026-04-22 11:21 47.48173 -122.31769 808 ft 136 kts 180°
2026-04-22 11:21 47.47671 -122.31772 733 ft 136 kts 181°
2026-04-22 11:22 47.46950 -122.31779 587 ft 137 kts 181°
2026-04-22 11:22 47.46199 -122.31786 448 ft 135 kts 182°
2026-04-22 11:22 47.45433 -122.31792 392 ft 117 kts 182°
2026-04-22 11:22 47.44743 -122.31800 388 ft 89 kts 180°
2026-04-22 11:23 47.44327 -122.31752 388 ft 58 kts 161°
2026-04-22 11:23 47.44097 -122.31578 388 ft 23 kts 150°
2026-04-22 11:23 47.43958 -122.31453 388 ft 21 kts 141°
2026-04-22 11:23 47.43837 -122.31322 388 ft 21 kts 143°
2026-04-22 11:24 47.43807 -122.31175 388 ft 22 kts 89°
2026-04-22 11:24 47.43808 -122.30928 388 ft 24 kts 91°
2026-04-22 11:24 47.43806 -122.30686 388 ft 17 kts 86°
2026-04-22 11:24 47.43822 -122.30629 388 ft 8 kts 67°
2026-04-22 11:25 47.43851 -122.30563 388 ft 8 kts 54°
2026-04-22 11:25 47.43851 -122.30486 388 ft 8 kts 94°
2026-04-22 11:25 47.43854 -122.30427 388 ft 0 kts 83°
2026-04-22 11:25 47.43856 -122.30411 388 ft 2 kts 80°
2026-04-22 11:26 47.43857 -122.30399 388 ft 1 kts 79°
2026-04-22 11:26 47.43858 -122.30391 388 ft 0 kts 80°
2026-04-22 11:26 47.43858 -122.30393 388 ft 1 kts 80°
2026-04-22 11:27 47.43857 -122.30403 388 ft 3 kts 80°
2026-04-22 11:27 47.43856 -122.30411 388 ft 0 kts 80°